Time,TemperatureF,DewpointF,PressureIn,WindDirection,WindDirectionDegrees,WindSpeedMPH,WindSpeedGustMPH,Humidity,HourlyPrecipIn,Conditions,Clouds,dailyrainin,SoftwareType,DateUTC
2013-09-23 00:00:00,57.4,56.2,29.92,East,92,1.0,4.0,96,0.00,,,0.56,WUHU216DAVISVP2,2013-09-23 07:00:00,
2013-09-23 00:01:00,57.4,56.2,29.92,SSE,148,0.0,4.0,96,0.00,,,0.00,WUHU216DAVISVP2,2013-09-23 07:01:00,
2013-09-23 00:04:00,57.4,56.2,29.92,South,174,0.0,4.0,96,0.00,,,0.00,WUHU216DAVISVP2,2013-09-23 07:04:00,
2013-09-23 00:05:00,57.5,56.3,29.92,SW,216,6.0,6.0,96,0.00,,,0.00,WUHU216DAVISVP2,2013-09-23 07:05:00,
2013-09-23 00:06:00,57.5,56.3,29.92,SW,220,1.0,6.0,96,0.00,,,0.00,WUHU216DAVISVP2,2013-09-23 07:06:00,
2013-09-23 00:09:00,57.5,56.3,29.92,SW,224,0.0,6.0,96,0.00,,,0.00,WUHU216DAVISVP2,2013-09-23 07:09:00,
2013-09-23 00:10:00,57.5,56.3,29.92,NNW,340,1.0,6.0,96,0.00,,,0.00,WUHU216DAVISVP2,2013-09-23 07:10:00,
2013-09-23 00:12:00,57.4,56.2,29.92,SW,223,0.0,6.0,96,0.00,,,0.00,WUHU216DAVISVP2,2013-09-23 07:12:00,
2013-09-23 00:14:00,57.4,56.2,29.92,SW,234,0.0,6.0,96,0.00,,,0.00,WUHU216DAVISVP2,2013-09-23 07:14:00,
2013-09-23 00:15:00,57.5,56.3,29.92,SW,216,0.0,6.0,96,0.00,,,0.00,WUHU216DAVISVP2,2013-09-23 07:15:00,
2013-09-23 00:16:00,57.4,56.2,29.92,South,186,0.0,6.0,96,0.00,,,0.00,WUHU216DAVISVP2,2013-09-23 07:16:00,
2013-09-23 00:17:00,57.4,56.2,29.92,SSE,148,0.0,6.0,96,0.00,,,0.00,WUHU216DAVISVP2,2013-09-23 07:17:00,
2013-09-23 00:19:00,57.4,56.2,29.92,East,98,0.0,6.0,96,0.00,,,0.00,WUHU216DAVISVP2,2013-09-23 07:19:00,
2013-09-23 00:20:00,57.4,56.2,29.92,SE,139,0.0,6.0,96,0.00,,,0.00,WUHU216DAVISVP2,2013-09-23 07:20:00,
2013-09-23 00:21:00,57.4,56.2,29.92,SE,129,2.0,6.0,96,0.00,,,0.00,WUHU216DAVISVP2,2013-09-23 07:21:00,
2013-09-23 00:22:00,57.3,56.1,29.92,SE,129,0.0,6.0,96,0.00,,,0.00,WUHU216DAVISVP2,2013-09-23 07:22:00,
2013-09-23 00:25:00,57.3,56.1,29.92,East,86,4.0,4.0,96,0.00,,,0.00,WUHU216DAVISVP2,2013-09-23 07:25:00,
2013-09-23 00:26:00,57.4,56.2,29.93,SE,132,0.0,4.0,96,0.00,,,0.00,WUHU216DAVISVP2,2013-09-23 07:26:00,
2013-09-23 00:28:00,57.4,56.2,29.93,ENE,60,0.0,4.0,96,0.00,,,0.00,WUHU216DAVISVP2,2013-09-23 07:28:00,
2013-09-23 00:30:00,57.3,56.1,29.93,SE,133,0.0,4.0,96,0.00,,,0.00,WUHU216DAVISVP2,2013-09-23 07:30:00,
2013-09-23 00:31:00,57.3,56.1,29.93,SW,236,0.0,4.0,96,0.00,,,0.00,WUHU216DAVISVP2,2013-09-23 07:31:00,
2013-09-23 00:32:00,57.3,56.1,29.93,SW,230,2.0,4.0,96,0.00,,,0.00,WUHU216DAVISVP2,2013-09-23 07:32:00,
2013-09-23 00:33:00,57.3,56.1,29.93,SSE,162,0.0,4.0,96,0.00,,,0.00,WUHU216DAVISVP2,2013-09-23 07:33:00,
2013-09-23 00:35:00,57.3,56.1,29.93,SW,233,0.0,4.0,96,0.00,,,0.00,WUHU216DAVISVP2,2013-09-23 07:35:00,
2013-09-23 00:36:00,57.3,56.1,29.93,East,96,0.0,4.0,96,0.00,,,0.00,WUHU216DAVISVP2,2013-09-23 07:36:00,
2013-09-23 00:37:00,57.3,56.1,29.93,South,176,1.0,4.0,96,0.00,,,0.00,WUHU216DAVISVP2,2013-09-23 07:37:00,
2013-09-23 00:38:00,57.3,56.1,29.92,SE,127,3.0,4.0,96,0.00,,,0.00,WUHU216DAVISVP2,2013-09-23 07:38:00,
2013-09-23 00:40:00,57.2,56.0,29.92,SE,146,0.0,4.0,96,0.00,,,0.00,WUHU216DAVISVP2,2013-09-23 07:40:00,
2013-09-23 00:41:00,57.2,56.0,29.93,WNW,301,1.0,4.0,96,0.00,,,0.00,WUHU216DAVISVP2,2013-09-23 07:41:00,
2013-09-23 00:43:00,57.2,56.0,29.93,West,266,2.0,4.0,96,0.00,,,0.00,WUHU216DAVISVP2,2013-09-23 07:43:00,
2013-09-23 00:45:00,57.2,56.0,29.93,SSE,159,1.0,3.0,96,0.00,,,0.00,WUHU216DAVISVP2,2013-09-23 07:45:00,
2013-09-23 00:46:00,57.2,56.0,29.93,SSW,209,2.0,3.0,96,0.00,,,0.00,WUHU216DAVISVP2,2013-09-23 07:46:00,
2013-09-23 00:48:00,57.2,56.0,29.93,SW,216,0.0,3.0,96,0.00,,,0.00,WUHU216DAVISVP2,2013-09-23 07:48:00,
2013-09-23 00:50:00,57.2,56.0,29.93,SW,233,0.0,3.0,96,0.00,,,0.00,WUHU216DAVISVP2,2013-09-23 07:50:00,
2013-09-23 00:51:00,57.3,56.1,29.93,West,278,0.0,3.0,96,0.00,,,0.00,WUHU216DAVISVP2,2013-09-23 07:51:00,
2013-09-23 00:52:00,57.3,56.1,29.93,SW,218,0.0,3.0,96,0.00,,,0.00,WUHU216DAVISVP2,2013-09-23 07:52:00,
2013-09-23 00:53:00,57.3,56.1,29.94,WSW,254,0.0,3.0,96,0.00,,,0.00,WUHU216DAVISVP2,2013-09-23 07:53:00,
2013-09-23 00:55:00,57.3,56.1,29.94,South,182,0.0,3.0,96,0.00,,,0.00,WUHU216DAVISVP2,2013-09-23 07:55:00,
2013-09-23 00:56:00,57.3,56.1,29.94,SW,233,0.0,3.0,96,0.00,,,0.00,WUHU216DAVISVP2,2013-09-23 07:56:00,
2013-09-23 00:57:00,57.3,56.1,29.93,SSE,147,1.0,3.0,96,0.00,,,0.00,WUHU216DAVISVP2,2013-09-23 07:57:00,
2013-09-23 00:58:00,57.3,56.1,29.93,SSE,150,1.0,3.0,96,0.00,,,0.00,WUHU216DAVISVP2,2013-09-23 07:58:00,
2013-09-23 00:59:00,57.3,56.1,29.94,West,274,0.0,3.0,96,0.00,,,0.00,WUHU216DAVISVP2,2013-09-23 07:59:00,
2013-09-23 01:01:00,57.4,56.2,29.93,SSE,154,2.0,3.0,96,0.00,,,0.00,WUHU216DAVISVP2,2013-09-23 08:01:00,
2013-09-23 01:02:00,57.4,56.2,29.93,SSW,200,0.0,4.0,96,0.00,,,0.00,WUHU216DAVISVP2,2013-09-23 08:02:00,
2013-09-23 01:03:00,57.4,56.2,29.93,West,266,0.0,4.0,96,0.00,,,0.00,WUHU216DAVISVP2,2013-09-23 08:03:00,
2013-09-23 01:04:00,57.4,56.2,29.93,SE,129,0.0,4.0,96,0.00,,,0.00,WUHU216DAVISVP2,2013-09-23 08:04:00,
2013-09-23 01:06:00,57.4,56.2,29.93,WSW,258,0.0,4.0,96,0.00,,,0.00,WUHU216DAVISVP2,2013-09-23 08:06:00,
2013-09-23 01:08:00,57.4,56.2,29.94,WSW,237,0.0,4.0,96,0.00,,,0.00,WUHU216DAVISVP2,2013-09-23 08:08:00,
2013-09-23 01:09:00,57.5,56.3,29.94,East,87,1.0,4.0,96,0.00,,,0.00,WUHU216DAVISVP2,2013-09-23 08:09:00,
2013-09-23 01:11:00,57.5,56.3,29.94,West,264,0.0,4.0,96,0.00,,,0.00,WUHU216DAVISVP2,2013-09-23 08:11:00,
2013-09-23 01:13:00,57.5,56.3,29.94,SSE,165,0.0,4.0,96,0.00,,,0.00,WUHU216DAVISVP2,2013-09-23 08:13:00,
2013-09-23 01:14:00,57.5,56.3,29.94,SW,216,0.0,4.0,96,0.00,,,0.00,WUHU216DAVISVP2,2013-09-23 08:14:00,
2013-09-23 01:16:00,57.5,56.3,29.94,NW,311,0.0,4.0,96,0.00,,,0.00,WUHU216DAVISVP2,2013-09-23 08:16:00,
2013-09-23 01:18:00,57.5,56.3,29.94,WSW,249,1.0,4.0,96,0.00,,,0.00,WUHU216DAVISVP2,2013-09-23 08:18:00,
2013-09-23 01:20:00,57.5,56.4,29.94,NE,39,0.0,4.0,96,0.00,,,0.00,WUHU216DAVISVP2,2013-09-23 08:20:00,
2013-09-23 01:21:00,57.6,56.5,29.94,SW,227,0.0,4.0,96,0.00,,,0.00,WUHU216DAVISVP2,2013-09-23 08:21:00,
2013-09-23 01:22:00,57.6,56.5,29.94,NNW,340,0.0,4.0,96,0.00,,,0.00,WUHU216DAVISVP2,2013-09-23 08:22:00,
2013-09-23 01:23:00,57.6,56.5,29.94,WNW,288,1.0,4.0,96,0.00,,,0.00,WUHU216DAVISVP2,2013-09-23 08:23:00,
2013-09-23 01:24:00,57.6,56.5,29.94,SSE,167,0.0,4.0,96,0.00,,,0.00,WUHU216DAVISVP2,2013-09-23 08:24:00,
2013-09-23 01:25:00,57.6,56.5,29.94,SSE,167,0.0,4.0,96,0.00,,,0.00,WUHU216DAVISVP2,2013-09-23 08:25:00,
2013-09-23 01:26:00,57.6,56.5,29.94,WSW,256,0.0,4.0,96,0.00,,,0.00,WUHU216DAVISVP2,2013-09-23 08:26:00,
2013-09-23 01:27:00,57.6,56.5,29.94,WSW,256,0.0,4.0,96,0.00,,,0.00,WUHU216DAVISVP2,2013-09-23 08:27:00,
2013-09-23 01:29:00,57.6,56.4,29.94,South,173,0.0,4.0,96,0.00,,,0.00,WUHU216DAVISVP2,2013-09-23 08:29:00,
2013-09-23 01:30:00,57.6,56.5,29.94,WSW,240,0.0,4.0,96,0.00,,,0.00,WUHU216DAVISVP2,2013-09-23 08:30:00,
2013-09-23 01:31:00,57.6,56.5,29.94,North,359,0.0,4.0,96,0.00,,,0.00,WUHU216DAVISVP2,2013-09-23 08:31:00,
2013-09-23 01:32:00,57.6,56.4,29.94,ENE,68,0.0,4.0,96,0.00,,,0.00,WUHU216DAVISVP2,2013-09-23 08:32:00,
2013-09-23 01:34:00,57.6,56.4,29.94,SSW,203,1.0,4.0,96,0.00,,,0.00,WUHU216DAVISVP2,2013-09-23 08:34:00,
2013-09-23 01:35:00,57.6,56.4,29.94,WSW,249,1.0,4.0,96,0.00,,,0.00,WUHU216DAVISVP2,2013-09-23 08:35:00,
2013-09-23 01:37:00,57.6,56.5,29.94,East,96,0.0,4.0,96,0.00,,,0.00,WUHU216DAVISVP2,2013-09-23 08:37:00,
2013-09-23 01:39:00,57.6,56.5,29.94,ESE,122,0.0,4.0,96,0.00,,,0.00,WUHU216DAVISVP2,2013-09-23 08:39:00,
2013-09-23 01:40:00,57.6,56.5,29.94,SSE,147,0.0,4.0,96,0.00,,,0.00,WUHU216DAVISVP2,2013-09-23 08:40:00,
2013-09-23 01:42:00,57.6,56.5,29.94,SE,137,0.0,4.0,96,0.00,,,0.00,WUHU216DAVISVP2,2013-09-23 08:42:00,
2013-09-23 01:44:00,57.6,56.5,29.94,SE,141,1.0,3.0,96,0.00,,,0.00,WUHU216DAVISVP2,2013-09-23 08:44:00,
2013-09-23 01:45:00,57.6,56.5,29.94,SW,217,0.0,3.0,96,0.00,,,0.00,WUHU216DAVISVP2,2013-09-23 08:45:00,
2013-09-23 01:47:00,57.6,56.5,29.94,NW,326,1.0,4.0,96,0.00,,,0.00,WUHU216DAVISVP2,2013-09-23 08:47:00,
2013-09-23 01:49:00,57.6,56.5,29.94,SE,136,2.0,4.0,96,0.00,,,0.00,WUHU216DAVISVP2,2013-09-23 08:49:00,
2013-09-23 01:50:00,57.6,56.5,29.94,SW,224,1.0,4.0,96,0.00,,,0.00,WUHU216DAVISVP2,2013-09-23 08:50:00,
2013-09-23 01:52:00,57.6,56.4,29.94,SSE,158,1.0,4.0,96,0.00,,,0.00,WUHU216DAVISVP2,2013-09-23 08:52:00,
2013-09-23 01:54:00,57.6,56.4,29.94,ESE,108,0.0,4.0,96,0.00,,,0.00,WUHU216DAVISVP2,2013-09-23 08:54:00,
2013-09-23 01:55:00,57.6,56.4,29.94,West,276,2.0,4.0,96,0.00,,,0.00,WUHU216DAVISVP2,2013-09-23 08:55:00,
2013-09-23 01:56:00,57.6,56.4,29.94,SW,231,1.0,4.0,96,0.00,,,0.00,WUHU216DAVISVP2,2013-09-23 08:56:00,
2013-09-23 01:57:00,57.5,56.3,29.94,WSW,238,1.0,4.0,96,0.00,,,0.00,WUHU216DAVISVP2,2013-09-23 08:57:00,
2013-09-23 01:59:00,57.6,56.4,29.94,West,269,0.0,4.0,96,0.00,,,0.00,WUHU216DAVISVP2,2013-09-23 08:59:00,
2013-09-23 02:00:00,57.6,56.1,29.94,SW,217,1.0,4.0,95,0.00,,,0.00,WUHU216DAVISVP2,2013-09-23 09:00:00,
2013-09-23 02:01:00,57.6,56.1,29.94,SSW,208,1.0,4.0,95,0.00,,,0.00,WUHU216DAVISVP2,2013-09-23 09:01:00,
2013-09-23 02:02:00,57.6,56.1,29.94,SE,138,1.0,4.0,95,0.00,,,0.00,WUHU216DAVISVP2,2013-09-23 09:02:00,
2013-09-23 02:04:00,57.6,56.1,29.94,ESE,115,1.0,4.0,95,0.00,,,0.00,WUHU216DAVISVP2,2013-09-23 09:04:00,
2013-09-23 02:06:00,57.6,56.1,29.94,ESE,109,0.0,4.0,95,0.00,,,0.00,WUHU216DAVISVP2,2013-09-23 09:06:00,
2013-09-23 02:07:00,57.6,56.1,29.94,East,82,1.0,4.0,95,0.00,,,0.00,WUHU216DAVISVP2,2013-09-23 09:07:00,
2013-09-23 02:09:00,57.6,56.1,29.94,South,187,0.0,4.0,95,0.00,,,0.00,WUHU216DAVISVP2,2013-09-23 09:09:00,
2013-09-23 02:11:00,57.6,56.1,29.94,SE,146,3.0,4.0,95,0.00,,,0.00,WUHU216DAVISVP2,2013-09-23 09:11:00,
2013-09-23 02:12:00,57.6,56.1,29.94,ENE,64,0.0,5.0,95,0.00,,,0.00,WUHU216DAVISVP2,2013-09-23 09:12:00,
2013-09-23 02:14:00,57.6,56.1,29.94,ESE,120,0.0,5.0,95,0.00,,,0.00,WUHU216DAVISVP2,2013-09-23 09:14:00,
2013-09-23 02:16:00,57.6,56.1,29.94,ESE,115,0.0,5.0,95,0.00,,,0.00,WUHU216DAVISVP2,2013-09-23 09:16:00,
2013-09-23 02:17:00,57.6,56.1,29.94,East,94,1.0,5.0,95,0.00,,,0.00,WUHU216DAVISVP2,2013-09-23 09:17:00,
2013-09-23 02:18:00,57.6,56.1,29.93,SE,146,1.0,5.0,95,0.00,,,0.00,WUHU216DAVISVP2,2013-09-23 09:18:00,
2013-09-23 02:19:00,57.6,56.1,29.93,ESE,120,0.0,5.0,95,0.00,,,0.00,WUHU216DAVISVP2,2013-09-23 09:19:00,
2013-09-23 02:21:00,57.6,56.1,29.93,SSE,158,0.0,5.0,95,0.00,,,0.00,WUHU216DAVISVP2,2013-09-23 09:21:00,
2013-09-23 02:22:00,57.6,56.1,29.93,SE,138,0.0,5.0,95,0.00,,,0.00,WUHU216DAVISVP2,2013-09-23 09:22:00,
2013-09-23 02:23:00,57.6,56.1,29.93,ESE,122,0.0,5.0,95,0.00,,,0.00,WUHU216DAVISVP2,2013-09-23 09:23:00,
2013-09-23 02:24:00,57.5,56.0,29.93,SSW,205,0.0,5.0,95,0.00,,,0.00,WUHU216DAVISVP2,2013-09-23 09:24:00,
2013-09-23 02:27:00,57.5,56.0,29.94,SSE,150,0.0,5.0,95,0.00,,,0.00,WUHU216DAVISVP2,2013-09-23 09:27:00,
2013-09-23 02:28:00,57.5,56.0,29.94,SW,235,0.0,5.0,95,0.00,,,0.00,WUHU216DAVISVP2,2013-09-23 09:28:00,
2013-09-23 02:29:00,57.5,56.0,29.94,West,260,0.0,5.0,95,0.00,,,0.00,WUHU216DAVISVP2,2013-09-23 09:29:00,
2013-09-23 02:32:00,57.5,56.0,29.94,SSW,198,0.0,3.0,95,0.00,,,0.00,WUHU216DAVISVP2,2013-09-23 09:32:00,
2013-09-23 02:33:00,57.5,56.0,29.94,SE,132,2.0,3.0,95,0.00,,,0.00,WUHU216DAVISVP2,2013-09-23 09:33:00,
2013-09-23 02:35:00,57.5,56.0,29.94,SSW,211,0.0,3.0,95,0.00,,,0.00,WUHU216DAVISVP2,2013-09-23 09:35:00,
2013-09-23 02:37:00,57.5,56.0,29.94,WSW,255,0.0,3.0,95,0.00,,,0.00,WUHU216DAVISVP2,2013-09-23 09:37:00,
2013-09-23 02:38:00,57.5,56.0,29.94,SE,143,1.0,3.0,95,0.00,,,0.00,WUHU216DAVISVP2,2013-09-23 09:38:00,
2013-09-23 02:40:00,57.5,56.0,29.94,SSE,161,1.0,3.0,95,0.00,,,0.00,WUHU216DAVISVP2,2013-09-23 09:40:00,
2013-09-23 02:42:00,57.6,56.1,29.94,ESE,113,0.0,3.0,95,0.00,,,0.00,WUHU216DAVISVP2,2013-09-23 09:42:00,
2013-09-23 02:43:00,57.6,56.1,29.94,ESE,113,0.0,3.0,95,0.00,,,0.00,WUHU216DAVISVP2,2013-09-23 09:43:00,
2013-09-23 02:45:00,57.6,56.1,29.95,SW,215,0.0,4.0,95,0.00,,,0.00,WUHU216DAVISVP2,2013-09-23 09:45:00,
2013-09-23 02:48:00,57.7,56.2,29.94,SSE,159,0.0,4.0,95,0.00,,,0.00,WUHU216DAVISVP2,2013-09-23 09:48:00,
2013-09-23 02:50:00,57.7,56.3,29.94,SW,221,0.0,4.0,95,0.00,,,0.00,WUHU216DAVISVP2,2013-09-23 09:50:00,
2013-09-23 02:53:00,57.7,56.3,29.94,SSW,204,0.0,4.0,95,0.00,,,0.00,WUHU216DAVISVP2,2013-09-23 09:53:00,
2013-09-23 02:55:00,57.6,56.2,29.94,SSE,162,1.0,4.0,95,0.00,,,0.00,WUHU216DAVISVP2,2013-09-23 09:55:00,
2013-09-23 02:58:00,57.7,56.3,29.94,SW,231,0.0,4.0,95,0.00,,,0.00,WUHU216DAVISVP2,2013-09-23 09:58:00,
2013-09-23 02:59:00,57.7,56.2,29.94,SW,236,1.0,4.0,95,0.00,,,0.00,WUHU216DAVISVP2,2013-09-23 09:59:00,
2013-09-23 03:00:00,57.7,56.2,29.95,SSW,200,0.0,4.0,95,0.00,,,0.00,WUHU216DAVISVP2,2013-09-23 10:00:00,
2013-09-23 03:03:00,57.6,56.1,29.94,NNE,26,0.0,4.0,95,0.00,,,0.00,WUHU216DAVISVP2,2013-09-23 10:03:00,
2013-09-23 03:04:00,57.6,56.1,29.95,WSW,253,0.0,4.0,95,0.00,,,0.00,WUHU216DAVISVP2,2013-09-23 10:04:00,
2013-09-23 03:06:00,57.6,56.1,29.95,ENE,63,0.0,4.0,95,0.00,,,0.00,WUHU216DAVISVP2,2013-09-23 10:06:00,
2013-09-23 03:08:00,57.7,56.2,29.95,South,173,2.0,4.0,95,0.00,,,0.00,WUHU216DAVISVP2,2013-09-23 10:08:00,
2013-09-23 03:09:00,57.7,56.2,29.95,WSW,238,0.0,4.0,95,0.00,,,0.00,WUHU216DAVISVP2,2013-09-23 10:09:00,
2013-09-23 03:11:00,57.7,56.2,29.95,South,190,0.0,4.0,95,0.00,,,0.00,WUHU216DAVISVP2,2013-09-23 10:11:00,
2013-09-23 03:13:00,57.7,56.2,29.95,East,95,0.0,4.0,95,0.00,,,0.00,WUHU216DAVISVP2,2013-09-23 10:13:00,
2013-09-23 03:14:00,57.7,56.2,29.95,WSW,245,1.0,4.0,95,0.00,,,0.00,WUHU216DAVISVP2,2013-09-23 10:14:00,
2013-09-23 03:16:00,57.7,56.2,29.95,West,274,0.0,4.0,95,0.00,,,0.00,WUHU216DAVISVP2,2013-09-23 10:16:00,
2013-09-23 03:18:00,57.7,56.2,29.95,SE,134,0.0,4.0,95,0.00,,,0.00,WUHU216DAVISVP2,2013-09-23 10:18:00,
2013-09-23 03:19:00,57.7,56.2,29.95,SSE,165,0.0,4.0,95,0.00,,,0.00,WUHU216DAVISVP2,2013-09-23 10:19:00,
2013-09-23 03:21:00,57.7,56.2,29.95,SSE,152,0.0,4.0,95,0.00,,,0.00,WUHU216DAVISVP2,2013-09-23 10:21:00,
2013-09-23 03:23:00,57.7,56.2,29.95,SE,146,0.0,4.0,95,0.00,,,0.00,WUHU216DAVISVP2,2013-09-23 10:23:00,
2013-09-23 03:24:00,57.7,56.2,29.95,SSE,149,0.0,4.0,95,0.00,,,0.00,WUHU216DAVISVP2,2013-09-23 10:24:00,
2013-09-23 03:25:00,57.7,56.2,29.95,SSE,157,1.0,3.0,95,0.00,,,0.00,WUHU216DAVISVP2,2013-09-23 10:25:00,
2013-09-23 03:26:00,57.7,56.2,29.95,SSE,166,2.0,3.0,95,0.00,,,0.00,WUHU216DAVISVP2,2013-09-23 10:26:00,
2013-09-23 03:29:00,57.7,56.2,29.95,SSE,167,2.0,4.0,95,0.00,,,0.00,WUHU216DAVISVP2,2013-09-23 10:29:00,
2013-09-23 03:30:00,57.7,56.2,29.94,WSW,239,0.0,4.0,95,0.00,,,0.00,WUHU216DAVISVP2,2013-09-23 10:30:00,
2013-09-23 03:31:00,57.7,56.2,29.94,WSW,245,0.0,4.0,95,0.00,,,0.00,WUHU216DAVISVP2,2013-09-23 10:31:00,
2013-09-23 03:34:00,57.7,56.2,29.94,SSE,148,1.0,4.0,95,0.00,,,0.00,WUHU216DAVISVP2,2013-09-23 10:34:00,
2013-09-23 03:35:00,57.7,56.2,29.94,SE,127,1.0,4.0,95,0.00,,,0.00,WUHU216DAVISVP2,2013-09-23 10:35:00,
2013-09-23 03:36:00,57.7,56.2,29.94,ESE,115,0.0,4.0,95,0.00,,,0.00,WUHU216DAVISVP2,2013-09-23 10:36:00,
2013-09-23 03:39:00,57.8,56.3,29.94,South,181,0.0,4.0,95,0.00,,,0.00,WUHU216DAVISVP2,2013-09-23 10:39:00,
2013-09-23 03:40:00,57.8,56.3,29.94,SE,135,1.0,4.0,95,0.00,,,0.00,WUHU216DAVISVP2,2013-09-23 10:40:00,
2013-09-23 03:41:00,57.8,56.3,29.94,South,183,0.0,4.0,95,0.00,,,0.00,WUHU216DAVISVP2,2013-09-23 10:41:00,
2013-09-23 03:42:00,57.8,56.3,29.94,SE,125,0.0,4.0,95,0.00,,,0.00,WUHU216DAVISVP2,2013-09-23 10:42:00,
2013-09-23 03:44:00,57.8,56.4,29.94,SSE,154,0.0,4.0,95,0.00,,,0.00,WUHU216DAVISVP2,2013-09-23 10:44:00,
2013-09-23 03:45:00,57.8,56.3,29.94,ESE,122,0.0,4.0,95,0.00,,,0.00,WUHU216DAVISVP2,2013-09-23 10:45:00,
2013-09-23 03:46:00,57.8,56.4,29.94,SW,230,0.0,4.0,95,0.00,,,0.00,WUHU216DAVISVP2,2013-09-23 10:46:00,
2013-09-23 03:47:00,57.8,56.3,29.94,ESE,120,0.0,4.0,95,0.00,,,0.00,WUHU216DAVISVP2,2013-09-23 10:47:00,
2013-09-23 03:49:00,57.8,56.4,29.94,SW,221,0.0,4.0,95,0.00,,,0.00,WUHU216DAVISVP2,2013-09-23 10:49:00,
2013-09-23 03:50:00,57.8,56.4,29.94,SW,221,0.0,4.0,95,0.00,,,0.00,WUHU216DAVISVP2,2013-09-23 10:50:00,
2013-09-23 03:51:00,57.8,56.4,29.94,SE,134,0.0,4.0,95,0.00,,,0.00,WUHU216DAVISVP2,2013-09-23 10:51:00,
2013-09-23 03:52:00,57.8,56.4,29.94,SE,140,1.0,4.0,95,0.00,,,0.00,WUHU216DAVISVP2,2013-09-23 10:52:00,
2013-09-23 03:55:00,57.8,56.4,29.94,SSW,199,0.0,4.0,95,0.00,,,0.00,WUHU216DAVISVP2,2013-09-23 10:55:00,
2013-09-23 03:57:00,57.8,56.4,29.95,SE,144,0.0,4.0,95,0.00,,,0.00,WUHU216DAVISVP2,2013-09-23 10:57:00,
2013-09-23 04:00:00,57.8,56.4,29.95,ESE,117,0.0,3.0,95,0.00,,,0.00,WUHU216DAVISVP2,2013-09-23 11:00:00,
2013-09-23 04:01:00,57.8,56.4,29.95,ENE,61,0.0,3.0,95,0.00,,,0.00,WUHU216DAVISVP2,2013-09-23 11:01:00,
2013-09-23 04:02:00,57.8,56.4,29.95,ESE,102,1.0,3.0,95,0.00,,,0.00,WUHU216DAVISVP2,2013-09-23 11:02:00,
2013-09-23 04:05:00,57.8,56.4,29.95,SW,226,1.0,3.0,95,0.00,,,0.00,WUHU216DAVISVP2,2013-09-23 11:05:00,
2013-09-23 04:06:00,57.9,56.5,29.95,SSE,162,0.0,3.0,95,0.00,,,0.00,WUHU216DAVISVP2,2013-09-23 11:06:00,
2013-09-23 04:07:00,57.9,56.2,29.95,SW,221,0.0,3.0,94,0.00,,,0.00,WUHU216DAVISVP2,2013-09-23 11:07:00,
2013-09-23 04:08:00,57.9,56.2,29.95,SW,214,0.0,3.0,94,0.00,,,0.00,WUHU216DAVISVP2,2013-09-23 11:08:00,
2013-09-23 04:10:00,57.9,56.2,29.95,SW,217,0.0,3.0,94,0.00,,,0.00,WUHU216DAVISVP2,2013-09-23 11:10:00,
2013-09-23 04:11:00,57.9,56.2,29.95,ENE,64,1.0,3.0,94,0.00,,,0.00,WUHU216DAVISVP2,2013-09-23 11:11:00,
2013-09-23 04:12:00,57.9,56.2,29.95,SW,231,0.0,3.0,94,0.00,,,0.00,WUHU216DAVISVP2,2013-09-23 11:12:00,
2013-09-23 04:13:00,57.9,56.2,29.95,SSE,147,0.0,3.0,94,0.00,,,0.00,WUHU216DAVISVP2,2013-09-23 11:13:00,
2013-09-23 04:15:00,58.0,56.2,29.95,West,266,1.0,3.0,94,0.00,,,0.00,WUHU216DAVISVP2,2013-09-23 11:15:00,
2013-09-23 04:16:00,58.0,56.2,29.95,South,175,0.0,3.0,94,0.00,,,0.00,WUHU216DAVISVP2,2013-09-23 11:16:00,
2013-09-23 04:18:00,58.0,56.2,29.95,SSE,165,0.0,3.0,94,0.00,,,0.00,WUHU216DAVISVP2,2013-09-23 11:18:00,
2013-09-23 04:19:00,58.0,56.2,29.95,SW,222,0.0,3.0,94,0.00,,,0.00,WUHU216DAVISVP2,2013-09-23 11:19:00,
2013-09-23 04:20:00,58.0,56.2,29.96,West,260,1.0,3.0,94,0.00,,,0.00,WUHU216DAVISVP2,2013-09-23 11:20:00,
2013-09-23 04:21:00,58.0,56.2,29.96,WNW,285,0.0,3.0,94,0.00,,,0.00,WUHU216DAVISVP2,2013-09-23 11:21:00,
2013-09-23 04:23:00,58.0,56.2,29.96,WSW,250,2.0,3.0,94,0.00,,,0.00,WUHU216DAVISVP2,2013-09-23 11:23:00,
2013-09-23 04:24:00,58.0,56.2,29.96,WSW,249,0.0,3.0,94,0.00,,,0.00,WUHU216DAVISVP2,2013-09-23 11:24:00,
2013-09-23 04:25:00,58.1,56.3,29.96,SSW,207,0.0,3.0,94,0.00,,,0.00,WUHU216DAVISVP2,2013-09-23 11:25:00,
2013-09-23 04:26:00,58.0,56.2,29.96,West,260,0.0,3.0,94,0.00,,,0.00,WUHU216DAVISVP2,2013-09-23 11:26:00,
2013-09-23 04:27:00,58.0,56.2,29.96,SSE,158,1.0,3.0,94,0.00,,,0.00,WUHU216DAVISVP2,2013-09-23 11:27:00,
2013-09-23 04:28:00,58.0,56.2,29.95,ESE,117,0.0,3.0,94,0.00,,,0.00,WUHU216DAVISVP2,2013-09-23 11:28:00,
2013-09-23 04:29:00,58.0,56.2,29.95,SE,137,1.0,5.0,94,0.00,,,0.00,WUHU216DAVISVP2,2013-09-23 11:29:00,
2013-09-23 04:30:00,58.0,56.2,29.95,ESE,121,0.0,5.0,94,0.00,,,0.00,WUHU216DAVISVP2,2013-09-23 11:30:00,
2013-09-23 04:32:00,58.0,56.2,29.95,SW,236,0.0,5.0,94,0.00,,,0.00,WUHU216DAVISVP2,2013-09-23 11:32:00,
2013-09-23 04:33:00,58.0,56.5,29.95,East,100,0.0,5.0,95,0.00,,,0.00,WUHU216DAVISVP2,2013-09-23 11:33:00,
2013-09-23 04:34:00,58.0,56.5,29.95,West,262,4.0,5.0,95,0.00,,,0.00,WUHU216DAVISVP2,2013-09-23 11:34:00,
2013-09-23 04:35:00,58.0,56.5,29.95,SSW,205,0.0,5.0,95,0.00,,,0.00,WUHU216DAVISVP2,2013-09-23 11:35:00,
2013-09-23 04:37:00,57.9,56.4,29.95,ESE,123,0.0,5.0,95,0.00,,,0.00,WUHU216DAVISVP2,2013-09-23 11:37:00,
2013-09-23 04:38:00,57.9,56.4,29.95,SSE,165,0.0,5.0,95,0.00,,,0.00,WUHU216DAVISVP2,2013-09-23 11:38:00,
2013-09-23 04:39:00,57.9,56.4,29.95,ESE,105,0.0,5.0,95,0.00,,,0.00,WUHU216DAVISVP2,2013-09-23 11:39:00,
2013-09-23 04:40:00,57.9,56.4,29.95,WNW,296,0.0,5.0,95,0.00,,,0.00,WUHU216DAVISVP2,2013-09-23 11:40:00,
2013-09-23 04:42:00,57.9,56.4,29.95,ESE,115,0.0,5.0,95,0.00,,,0.00,WUHU216DAVISVP2,2013-09-23 11:42:00,
2013-09-23 04:44:00,57.8,56.3,29.95,SE,124,0.0,5.0,95,0.00,,,0.00,WUHU216DAVISVP2,2013-09-23 11:44:00,
2013-09-23 04:45:00,57.8,56.3,29.95,SSW,210,0.0,5.0,95,0.00,,,0.00,WUHU216DAVISVP2,2013-09-23 11:45:00,
2013-09-23 04:47:00,57.8,56.3,29.95,South,176,0.0,5.0,95,0.00,,,0.00,WUHU216DAVISVP2,2013-09-23 11:47:00,
2013-09-23 04:49:00,57.8,56.3,29.95,SE,146,0.0,4.0,95,0.00,,,0.00,WUHU216DAVISVP2,2013-09-23 11:49:00,
2013-09-23 04:50:00,57.8,56.3,29.95,SSW,207,0.0,4.0,95,0.00,,,0.00,WUHU216DAVISVP2,2013-09-23 11:50:00,
2013-09-23 04:53:00,57.8,56.3,29.95,South,169,1.0,4.0,95,0.00,,,0.00,WUHU216DAVISVP2,2013-09-23 11:53:00,
2013-09-23 04:54:00,57.7,56.2,29.95,SE,145,0.0,4.0,95,0.00,,,0.00,WUHU216DAVISVP2,2013-09-23 11:54:00,
2013-09-23 04:55:00,57.7,56.2,29.95,SE,145,0.0,4.0,95,0.00,,,0.00,WUHU216DAVISVP2,2013-09-23 11:55:00,
2013-09-23 04:56:00,57.7,56.2,29.95,SE,145,0.0,4.0,95,0.00,,,0.00,WUHU216DAVISVP2,2013-09-23 11:56:00,
2013-09-23 04:58:00,57.7,56.2,29.95,SE,144,0.0,4.0,95,0.00,,,0.00,WUHU216DAVISVP2,2013-09-23 11:58:00,
2013-09-23 04:59:00,57.7,56.2,29.95,SE,145,0.0,4.0,95,0.00,,,0.00,WUHU216DAVISVP2,2013-09-23 11:59:00,
2013-09-23 05:00:00,57.6,56.1,29.95,SE,145,0.0,4.0,95,0.00,,,0.00,WUHU216DAVISVP2,2013-09-23 12:00:00,
2013-09-23 05:01:00,57.6,56.1,29.95,SE,145,0.0,4.0,95,0.00,,,0.00,WUHU216DAVISVP2,2013-09-23 12:01:00,
2013-09-23 05:04:00,57.6,56.1,29.95,SW,214,0.0,4.0,95,0.00,,,0.00,WUHU216DAVISVP2,2013-09-23 12:04:00,
2013-09-23 05:05:00,57.6,56.1,29.95,South,174,0.0,4.0,95,0.00,,,0.00,WUHU216DAVISVP2,2013-09-23 12:05:00,
2013-09-23 05:06:00,57.6,56.1,29.95,South,174,0.0,3.0,95,0.00,,,0.00,WUHU216DAVISVP2,2013-09-23 12:06:00,
2013-09-23 05:09:00,57.5,56.0,29.95,South,169,0.0,3.0,95,0.00,,,0.00,WUHU216DAVISVP2,2013-09-23 12:09:00,
2013-09-23 05:10:00,57.5,56.0,29.95,SSE,148,0.0,3.0,95,0.00,,,0.00,WUHU216DAVISVP2,2013-09-23 12:10:00,
2013-09-23 05:11:00,57.5,56.0,29.95,SSE,148,0.0,3.0,95,0.00,,,0.00,WUHU216DAVISVP2,2013-09-23 12:11:00,
2013-09-23 05:14:00,57.5,56.0,29.95,SE,146,0.0,2.0,95,0.00,,,0.00,WUHU216DAVISVP2,2013-09-23 12:14:00,
2013-09-23 05:16:00,57.5,56.0,29.95,SE,146,0.0,2.0,95,0.00,,,0.00,WUHU216DAVISVP2,2013-09-23 12:16:00,
2013-09-23 05:19:00,57.5,56.3,29.96,WSW,240,0.0,2.0,96,0.00,,,0.00,WUHU216DAVISVP2,2013-09-23 12:19:00,
2013-09-23 05:20:00,57.5,56.3,29.96,WSW,240,0.0,2.0,96,0.00,,,0.00,WUHU216DAVISVP2,2013-09-23 12:20:00,
2013-09-23 05:21:00,57.5,56.3,29.96,East,86,1.0,2.0,96,0.00,,,0.00,WUHU216DAVISVP2,2013-09-23 12:21:00,
2013-09-23 05:22:00,57.5,56.3,29.96,SSE,162,0.0,2.0,96,0.00,,,0.00,WUHU216DAVISVP2,2013-09-23 12:22:00,
2013-09-23 05:25:00,57.4,56.2,29.96,SSE,164,0.0,1.0,96,0.00,,,0.00,WUHU216DAVISVP2,2013-09-23 12:25:00,
2013-09-23 05:26:00,57.5,56.3,29.96,SSW,196,0.0,2.0,96,0.00,,,0.00,WUHU216DAVISVP2,2013-09-23 12:26:00,
2013-09-23 05:27:00,57.5,56.3,29.96,ESE,111,0.0,4.0,96,0.00,,,0.00,WUHU216DAVISVP2,2013-09-23 12:27:00,
2013-09-23 05:30:00,57.5,56.0,29.96,SSW,212,0.0,4.0,95,0.00,,,0.00,WUHU216DAVISVP2,2013-09-23 12:30:00,
2013-09-23 05:31:00,57.6,56.1,29.96,SW,214,0.0,4.0,95,0.00,,,0.00,WUHU216DAVISVP2,2013-09-23 12:31:00,
2013-09-23 05:32:00,57.6,56.1,29.96,East,80,0.0,4.0,95,0.00,,,0.00,WUHU216DAVISVP2,2013-09-23 12:32:00,
2013-09-23 05:35:00,57.6,56.1,29.96,SSW,203,2.0,4.0,95,0.00,,,0.00,WUHU216DAVISVP2,2013-09-23 12:35:00,
2013-09-23 05:36:00,57.6,56.1,29.96,SE,141,0.0,4.0,95,0.00,,,0.00,WUHU216DAVISVP2,2013-09-23 12:36:00,
2013-09-23 05:37:00,57.6,56.1,29.96,ESE,122,0.0,4.0,95,0.00,,,0.00,WUHU216DAVISVP2,2013-09-23 12:37:00,
2013-09-23 05:38:00,57.6,56.1,29.96,SW,219,0.0,4.0,95,0.00,,,0.00,WUHU216DAVISVP2,2013-09-23 12:38:00,
2013-09-23 05:40:00,57.6,56.1,29.96,SW,230,0.0,4.0,95,0.00,,,0.00,WUHU216DAVISVP2,2013-09-23 12:40:00,
2013-09-23 05:41:00,57.6,56.1,29.96,SSE,167,0.0,4.0,95,0.00,,,0.00,WUHU216DAVISVP2,2013-09-23 12:41:00,
2013-09-23 05:42:00,57.6,56.1,29.96,SSE,150,0.0,4.0,95,0.00,,,0.00,WUHU216DAVISVP2,2013-09-23 12:42:00,
2013-09-23 05:43:00,57.6,56.2,29.96,SSE,149,0.0,4.0,95,0.00,,,0.00,WUHU216DAVISVP2,2013-09-23 12:43:00,
2013-09-23 05:45:00,57.6,56.2,29.96,SSE,149,0.0,4.0,95,0.00,,,0.00,WUHU216DAVISVP2,2013-09-23 12:45:00,
2013-09-23 05:46:00,57.6,56.2,29.96,SSE,149,0.0,3.0,95,0.00,,,0.00,WUHU216DAVISVP2,2013-09-23 12:46:00,
2013-09-23 05:47:00,57.6,56.2,29.96,SSE,149,0.0,3.0,95,0.00,,,0.00,WUHU216DAVISVP2,2013-09-23 12:47:00,
2013-09-23 05:48:00,57.5,56.1,29.96,WNW,285,0.0,3.0,95,0.00,,,0.00,WUHU216DAVISVP2,2013-09-23 12:48:00,
2013-09-23 05:50:00,57.5,56.1,29.96,SE,146,0.0,3.0,95,0.00,,,0.00,WUHU216DAVISVP2,2013-09-23 12:50:00,
2013-09-23 05:52:00,57.5,56.1,29.96,SSW,205,0.0,3.0,95,0.00,,,0.00,WUHU216DAVISVP2,2013-09-23 12:52:00,
2013-09-23 05:53:00,57.5,56.4,29.96,SE,125,0.0,3.0,96,0.00,,,0.00,WUHU216DAVISVP2,2013-09-23 12:53:00,
2013-09-23 05:55:00,57.5,56.4,29.96,South,173,0.0,3.0,96,0.00,,,0.00,WUHU216DAVISVP2,2013-09-23 12:55:00,
2013-09-23 05:57:00,57.6,56.5,29.96,NE,51,0.0,3.0,96,0.00,,,0.00,WUHU216DAVISVP2,2013-09-23 12:57:00,
2013-09-23 05:58:00,57.6,56.5,29.96,SE,144,0.0,3.0,96,0.00,,,0.00,WUHU216DAVISVP2,2013-09-23 12:58:00,
2013-09-23 06:00:00,57.6,56.5,29.96,SE,144,0.0,1.0,96,0.00,,,0.00,WUHU216DAVISVP2,2013-09-23 13:00:00,
2013-09-23 06:02:00,57.6,56.5,29.96,SSE,164,0.0,1.0,96,0.00,,,0.00,WUHU216DAVISVP2,2013-09-23 13:02:00,
2013-09-23 06:03:00,57.6,56.5,29.96,SSE,164,0.0,1.0,96,0.00,,,0.00,WUHU216DAVISVP2,2013-09-23 13:03:00,
2013-09-23 06:04:00,57.6,56.4,29.96,SSE,164,0.0,1.0,96,0.00,,,0.00,WUHU216DAVISVP2,2013-09-23 13:04:00,
2013-09-23 06:05:00,57.6,56.4,29.96,SSE,164,0.0,1.0,96,0.00,,,0.00,WUHU216DAVISVP2,2013-09-23 13:05:00,
2013-09-23 06:07:00,57.6,56.4,29.96,SE,146,0.0,1.0,96,0.00,,,0.00,WUHU216DAVISVP2,2013-09-23 13:07:00,
2013-09-23 06:09:00,57.6,56.4,29.96,SE,146,0.0,1.0,96,0.00,,,0.00,WUHU216DAVISVP2,2013-09-23 13:09:00,
2013-09-23 06:10:00,57.6,56.4,29.96,ESE,117,0.0,1.0,96,0.00,,,0.00,WUHU216DAVISVP2,2013-09-23 13:10:00,
2013-09-23 06:12:00,57.7,56.5,29.96,SE,139,0.0,1.0,96,0.00,,,0.00,WUHU216DAVISVP2,2013-09-23 13:12:00,
2013-09-23 06:14:00,57.7,56.5,29.96,ESE,108,0.0,1.0,96,0.00,,,0.00,WUHU216DAVISVP2,2013-09-23 13:14:00,
2013-09-23 06:16:00,57.7,56.5,29.96,ESE,108,0.0,1.0,96,0.00,,,0.00,WUHU216DAVISVP2,2013-09-23 13:16:00,
2013-09-23 06:17:00,57.7,56.5,29.96,ESE,108,0.0,1.0,96,0.00,,,0.00,WUHU216DAVISVP2,2013-09-23 13:17:00,
2013-09-23 06:19:00,57.7,56.5,29.96,SE,126,0.0,1.0,96,0.00,,,0.00,WUHU216DAVISVP2,2013-09-23 13:19:00,
2013-09-23 06:21:00,57.7,56.5,29.96,SE,141,0.0,1.0,96,0.00,,,0.00,WUHU216DAVISVP2,2013-09-23 13:21:00,
2013-09-23 06:22:00,57.7,56.5,29.96,SSE,165,0.0,1.0,96,0.00,,,0.00,WUHU216DAVISVP2,2013-09-23 13:22:00,
2013-09-23 06:24:00,57.7,56.5,29.96,SE,143,0.0,1.0,96,0.00,,,0.00,WUHU216DAVISVP2,2013-09-23 13:24:00,
2013-09-23 06:26:00,57.8,56.6,29.96,ESE,118,0.0,1.0,96,0.00,,,0.00,WUHU216DAVISVP2,2013-09-23 13:26:00,
2013-09-23 06:27:00,57.8,56.3,29.96,SSE,163,1.0,2.0,95,0.00,,,0.00,WUHU216DAVISVP2,2013-09-23 13:27:00,
2013-09-23 06:29:00,57.8,56.3,29.96,SE,132,0.0,2.0,95,0.00,,,0.00,WUHU216DAVISVP2,2013-09-23 13:29:00,
2013-09-23 06:30:00,57.8,56.3,29.96,SSW,195,0.0,2.0,95,0.00,,,0.00,WUHU216DAVISVP2,2013-09-23 13:30:00,
2013-09-23 06:31:00,57.8,56.4,29.96,SSW,211,0.0,2.0,95,0.00,,,0.00,WUHU216DAVISVP2,2013-09-23 13:31:00,
2013-09-23 06:32:00,57.8,56.3,29.96,South,183,0.0,2.0,95,0.00,,,0.00,WUHU216DAVISVP2,2013-09-23 13:32:00,
2013-09-23 06:34:00,57.9,56.4,29.97,East,96,0.0,2.0,95,0.00,,,0.00,WUHU216DAVISVP2,2013-09-23 13:34:00,
2013-09-23 06:35:00,57.9,56.4,29.96,East,96,0.0,2.0,95,0.00,,,0.00,WUHU216DAVISVP2,2013-09-23 13:35:00,
2013-09-23 06:37:00,57.9,56.4,29.96,SW,221,0.0,2.0,95,0.00,,,0.00,WUHU216DAVISVP2,2013-09-23 13:37:00,
2013-09-23 06:40:00,57.9,56.5,29.96,SSE,158,0.0,2.0,95,0.00,,,0.00,WUHU216DAVISVP2,2013-09-23 13:40:00,
2013-09-23 06:42:00,57.9,56.4,29.96,SSW,209,2.0,3.0,95,0.00,,,0.00,WUHU216DAVISVP2,2013-09-23 13:42:00,
2013-09-23 06:43:00,57.9,56.4,29.96,SW,219,0.0,3.0,95,0.00,,,0.00,WUHU216DAVISVP2,2013-09-23 13:43:00,
2013-09-23 06:45:00,58.0,56.5,29.96,SSW,210,0.0,3.0,95,0.00,,,0.00,WUHU216DAVISVP2,2013-09-23 13:45:00,
2013-09-23 06:47:00,58.0,56.6,29.96,SSW,209,0.0,3.0,95,0.00,,,0.00,WUHU216DAVISVP2,2013-09-23 13:47:00,
2013-09-23 06:48:00,58.1,56.7,29.96,SSE,158,3.0,3.0,95,0.00,,,0.00,WUHU216DAVISVP2,2013-09-23 13:48:00,
2013-09-23 06:50:00,58.1,56.6,29.96,SSW,213,0.0,3.0,95,0.00,,,0.00,WUHU216DAVISVP2,2013-09-23 13:50:00,
2013-09-23 06:51:00,58.1,56.6,29.96,SE,134,0.0,3.0,95,0.00,,,0.00,WUHU216DAVISVP2,2013-09-23 13:51:00,
2013-09-23 06:52:00,58.2,56.7,29.96,SSE,167,0.0,3.0,95,0.00,,,0.00,WUHU216DAVISVP2,2013-09-23 13:52:00,
2013-09-23 06:53:00,58.2,56.7,29.96,South,172,0.0,3.0,95,0.00,,,0.00,WUHU216DAVISVP2,2013-09-23 13:53:00,
2013-09-23 06:55:00,58.2,56.7,29.97,SSE,153,0.0,3.0,95,0.00,,,0.00,WUHU216DAVISVP2,2013-09-23 13:55:00,
2013-09-23 06:56:00,58.2,56.7,29.97,SSE,156,0.0,3.0,95,0.00,,,0.00,WUHU216DAVISVP2,2013-09-23 13:56:00,
2013-09-23 06:57:00,58.3,56.8,29.97,ESE,107,1.0,3.0,95,0.00,,,0.00,WUHU216DAVISVP2,2013-09-23 13:57:00,
2013-09-23 06:58:00,58.3,56.8,29.96,East,98,2.0,3.0,95,0.00,,,0.00,WUHU216DAVISVP2,2013-09-23 13:58:00,
2013-09-23 07:00:00,58.4,56.9,29.96,SSE,165,0.0,3.0,95,0.00,,,0.00,WUHU216DAVISVP2,2013-09-23 14:00:00,
2013-09-23 07:01:00,58.4,56.9,29.96,SE,141,1.0,3.0,95,0.00,,,0.00,WUHU216DAVISVP2,2013-09-23 14:01:00,
2013-09-23 07:02:00,58.4,56.9,29.96,South,173,0.0,3.0,95,0.00,,,0.00,WUHU216DAVISVP2,2013-09-23 14:02:00,
2013-09-23 07:03:00,58.4,56.9,29.96,South,173,0.0,3.0,95,0.00,,,0.00,WUHU216DAVISVP2,2013-09-23 14:03:00,
2013-09-23 07:05:00,58.4,56.9,29.96,ESE,114,0.0,3.0,95,0.00,,,0.00,WUHU216DAVISVP2,2013-09-23 14:05:00,
2013-09-23 07:06:00,58.4,56.9,29.96,ESE,114,0.0,3.0,95,0.00,,,0.00,WUHU216DAVISVP2,2013-09-23 14:06:00,
2013-09-23 07:07:00,58.4,56.9,29.96,ESE,114,0.0,3.0,95,0.00,,,0.00,WUHU216DAVISVP2,2013-09-23 14:07:00,
2013-09-23 07:08:00,58.4,56.9,29.96,ESE,114,0.0,3.0,95,0.00,,,0.00,WUHU216DAVISVP2,2013-09-23 14:08:00,
2013-09-23 07:11:00,58.4,56.9,29.97,ESE,114,0.0,3.0,95,0.00,,,0.00,WUHU216DAVISVP2,2013-09-23 14:11:00,
2013-09-23 07:12:00,58.4,56.9,29.96,ESE,114,0.0,3.0,95,0.00,,,0.00,WUHU216DAVISVP2,2013-09-23 14:12:00,
2013-09-23 07:13:00,58.4,56.9,29.96,SSE,158,0.0,3.0,95,0.00,,,0.00,WUHU216DAVISVP2,2013-09-23 14:13:00,
2013-09-23 07:16:00,58.4,56.9,29.96,SSE,162,0.0,2.0,95,0.00,,,0.00,WUHU216DAVISVP2,2013-09-23 14:16:00,
2013-09-23 07:17:00,58.5,57.0,29.97,South,188,0.0,1.0,95,0.00,,,0.00,WUHU216DAVISVP2,2013-09-23 14:17:00,
2013-09-23 07:18:00,58.5,57.0,29.96,South,188,0.0,1.0,95,0.00,,,0.00,WUHU216DAVISVP2,2013-09-23 14:18:00,
2013-09-23 07:21:00,58.5,57.1,29.96,SSE,147,0.0,1.0,95,0.00,,,0.00,WUHU216DAVISVP2,2013-09-23 14:21:00,
2013-09-23 07:22:00,58.5,57.0,29.96,SW,231,0.0,3.0,95,0.00,,,0.00,WUHU216DAVISVP2,2013-09-23 14:22:00,
2013-09-23 07:23:00,58.5,57.1,29.96,WSW,246,0.0,3.0,95,0.00,,,0.00,WUHU216DAVISVP2,2013-09-23 14:23:00,
2013-09-23 07:26:00,58.5,57.1,29.96,SW,218,0.0,3.0,95,0.00,,,0.00,WUHU216DAVISVP2,2013-09-23 14:26:00,
2013-09-23 07:27:00,58.5,57.1,29.96,SSE,148,0.0,3.0,95,0.00,,,0.00,WUHU216DAVISVP2,2013-09-23 14:27:00,
2013-09-23 07:28:00,58.5,57.1,29.96,SSE,165,2.0,3.0,95,0.00,,,0.00,WUHU216DAVISVP2,2013-09-23 14:28:00,
2013-09-23 07:31:00,58.5,57.1,29.96,South,171,0.0,3.0,95,0.00,,,0.00,WUHU216DAVISVP2,2013-09-23 14:31:00,
2013-09-23 07:32:00,58.5,57.1,29.96,South,182,0.0,3.0,95,0.00,,,0.00,WUHU216DAVISVP2,2013-09-23 14:32:00,
2013-09-23 07:33:00,58.5,57.1,29.96,SE,134,0.0,3.0,95,0.00,,,0.00,WUHU216DAVISVP2,2013-09-23 14:33:00,
2013-09-23 07:34:00,58.5,57.1,29.96,SSE,155,1.0,3.0,95,0.00,,,0.00,WUHU216DAVISVP2,2013-09-23 14:34:00,
2013-09-23 07:37:00,58.5,57.1,29.97,ESE,113,0.0,3.0,95,0.00,,,0.00,WUHU216DAVISVP2,2013-09-23 14:37:00,
2013-09-23 07:38:00,58.5,57.0,29.97,SE,127,0.0,3.0,95,0.00,,,0.00,WUHU216DAVISVP2,2013-09-23 14:38:00,
2013-09-23 07:39:00,58.5,57.0,29.97,South,174,0.0,3.0,95,0.00,,,0.00,WUHU216DAVISVP2,2013-09-23 14:39:00,
2013-09-23 07:42:00,58.5,57.1,29.97,ESE,108,0.0,3.0,95,0.00,,,0.00,WUHU216DAVISVP2,2013-09-23 14:42:00,
2013-09-23 07:43:00,58.5,57.1,29.97,ESE,103,0.0,3.0,95,0.00,,,0.00,WUHU216DAVISVP2,2013-09-23 14:43:00,
2013-09-23 07:44:00,58.6,57.2,29.97,South,189,0.0,3.0,95,0.00,,,0.00,WUHU216DAVISVP2,2013-09-23 14:44:00,
2013-09-23 07:47:00,58.6,57.1,29.97,ESE,114,0.0,3.0,95,0.00,,,0.00,WUHU216DAVISVP2,2013-09-23 14:47:00,
2013-09-23 07:48:00,58.6,57.1,29.97,ESE,114,0.0,3.0,95,0.00,,,0.00,WUHU216DAVISVP2,2013-09-23 14:48:00,
2013-09-23 07:50:00,58.6,57.2,29.97,SW,226,0.0,3.0,95,0.00,,,0.00,WUHU216DAVISVP2,2013-09-23 14:50:00,
2013-09-23 07:52:00,58.6,57.1,29.97,ESE,117,0.0,3.0,95,0.00,,,0.00,WUHU216DAVISVP2,2013-09-23 14:52:00,
2013-09-23 07:53:00,58.6,57.1,29.97,SSE,158,0.0,3.0,95,0.00,,,0.00,WUHU216DAVISVP2,2013-09-23 14:53:00,
2013-09-23 07:54:00,58.6,57.1,29.97,SSE,150,0.0,3.0,95,0.00,,,0.00,WUHU216DAVISVP2,2013-09-23 14:54:00,
2013-09-23 07:55:00,58.6,57.1,29.97,SSE,150,0.0,3.0,95,0.00,,,0.00,WUHU216DAVISVP2,2013-09-23 14:55:00,
2013-09-23 07:57:00,58.7,57.2,29.97,SE,132,0.0,3.0,95,0.00,,,0.00,WUHU216DAVISVP2,2013-09-23 14:57:00,
2013-09-23 07:58:00,58.6,57.1,29.97,SW,220,0.0,3.0,95,0.00,,,0.00,WUHU216DAVISVP2,2013-09-23 14:58:00,
2013-09-23 07:59:00,58.7,57.2,29.97,ESE,115,0.0,3.0,95,0.00,,,0.00,WUHU216DAVISVP2,2013-09-23 14:59:00,
2013-09-23 08:00:00,58.7,56.9,29.97,SSW,195,0.0,3.0,94,0.00,,,0.00,WUHU216DAVISVP2,2013-09-23 15:00:00,
2013-09-23 08:03:00,58.7,56.9,29.98,SSE,147,0.0,3.0,94,0.00,,,0.00,WUHU216DAVISVP2,2013-09-23 15:03:00,
2013-09-23 08:04:00,58.8,57.0,29.97,ESE,118,0.0,3.0,94,0.00,,,0.00,WUHU216DAVISVP2,2013-09-23 15:04:00,
2013-09-23 08:05:00,58.8,57.0,29.98,ESE,113,0.0,1.0,94,0.00,,,0.00,WUHU216DAVISVP2,2013-09-23 15:05:00,
2013-09-23 08:08:00,58.8,57.0,29.98,South,174,0.0,1.0,94,0.00,,,0.00,WUHU216DAVISVP2,2013-09-23 15:08:00,
2013-09-23 08:09:00,58.9,57.1,29.97,East,96,0.0,1.0,94,0.00,,,0.00,WUHU216DAVISVP2,2013-09-23 15:09:00,
2013-09-23 08:10:00,58.9,57.1,29.98,South,172,0.0,1.0,94,0.00,,,0.00,WUHU216DAVISVP2,2013-09-23 15:10:00,
2013-09-23 08:13:00,59.0,57.2,29.98,SE,146,0.0,1.0,94,0.00,,,0.00,WUHU216DAVISVP2,2013-09-23 15:13:00,
2013-09-23 08:14:00,59.0,57.2,29.98,SE,146,0.0,1.0,94,0.00,,,0.00,WUHU216DAVISVP2,2013-09-23 15:14:00,
2013-09-23 08:16:00,59.0,57.2,29.98,SE,146,0.0,1.0,94,0.00,,,0.00,WUHU216DAVISVP2,2013-09-23 15:16:00,
2013-09-23 08:18:00,59.1,57.3,29.98,SSW,210,1.0,2.0,94,0.00,,,0.00,WUHU216DAVISVP2,2013-09-23 15:18:00,
2013-09-23 08:19:00,59.1,57.3,29.98,SE,141,0.0,2.0,94,0.00,,,0.00,WUHU216DAVISVP2,2013-09-23 15:19:00,
2013-09-23 08:22:00,59.1,57.0,29.98,ESE,115,0.0,3.0,93,0.00,,,0.00,WUHU216DAVISVP2,2013-09-23 15:22:00,
2013-09-23 08:24:00,59.2,57.1,29.98,ESE,121,0.0,3.0,93,0.00,,,0.00,WUHU216DAVISVP2,2013-09-23 15:24:00,
2013-09-23 08:27:00,59.2,57.4,29.98,ESE,103,0.0,3.0,94,0.00,,,0.00,WUHU216DAVISVP2,2013-09-23 15:27:00,
2013-09-23 08:29:00,59.3,57.2,29.98,SE,142,0.0,3.0,93,0.00,,,0.00,WUHU216DAVISVP2,2013-09-23 15:29:00,
2013-09-23 08:30:00,59.3,57.2,29.98,SSE,149,0.0,3.0,93,0.00,,,0.00,WUHU216DAVISVP2,2013-09-23 15:30:00,
2013-09-23 08:32:00,59.3,57.2,29.97,SW,217,0.0,3.0,93,0.00,,,0.00,WUHU216DAVISVP2,2013-09-23 15:32:00,
2013-09-23 08:34:00,59.4,57.3,29.97,ESE,121,0.0,3.0,93,0.00,,,0.00,WUHU216DAVISVP2,2013-09-23 15:34:00,
2013-09-23 08:35:00,59.4,57.3,29.98,ESE,121,0.0,3.0,93,0.00,,,0.00,WUHU216DAVISVP2,2013-09-23 15:35:00,
2013-09-23 08:37:00,59.5,57.4,29.98,SE,146,0.0,3.0,93,0.00,,,0.00,WUHU216DAVISVP2,2013-09-23 15:37:00,
2013-09-23 08:39:00,59.5,57.4,29.98,ESE,108,0.0,3.0,93,0.00,,,0.00,WUHU216DAVISVP2,2013-09-23 15:39:00,
2013-09-23 08:40:00,59.5,57.4,29.97,ESE,107,0.0,3.0,93,0.00,,,0.00,WUHU216DAVISVP2,2013-09-23 15:40:00,
2013-09-23 08:42:00,59.6,57.5,29.98,South,177,0.0,2.0,93,0.00,,,0.00,WUHU216DAVISVP2,2013-09-23 15:42:00,
2013-09-23 08:45:00,59.6,57.5,29.98,SE,131,1.0,2.0,93,0.00,,,0.00,WUHU216DAVISVP2,2013-09-23 15:45:00,
2013-09-23 08:48:00,59.6,57.6,29.98,SSE,149,0.0,2.0,93,0.00,,,0.00,WUHU216DAVISVP2,2013-09-23 15:48:00,
2013-09-23 08:50:00,59.6,57.6,29.98,SSW,199,1.0,2.0,93,0.00,,,0.00,WUHU216DAVISVP2,2013-09-23 15:50:00,
2013-09-23 08:51:00,59.6,57.3,29.98,SSE,162,0.0,2.0,92,0.00,,,0.00,WUHU216DAVISVP2,2013-09-23 15:51:00,
2013-09-23 08:53:00,59.6,57.3,29.98,SSE,160,0.0,2.0,92,0.00,,,0.00,WUHU216DAVISVP2,2013-09-23 15:53:00,
2013-09-23 08:55:00,59.6,57.6,29.98,ESE,117,0.0,2.0,93,0.00,,,0.00,WUHU216DAVISVP2,2013-09-23 15:55:00,
2013-09-23 08:56:00,59.7,57.4,29.98,ESE,109,0.0,2.0,92,0.00,,,0.00,WUHU216DAVISVP2,2013-09-23 15:56:00,
2013-09-23 08:58:00,59.7,57.4,29.98,SE,133,0.0,2.0,92,0.00,,,0.00,WUHU216DAVISVP2,2013-09-23 15:58:00,
2013-09-23 09:00:00,59.7,57.6,29.98,ESE,108,0.0,2.0,93,0.00,,,0.00,WUHU216DAVISVP2,2013-09-23 16:00:00,
2013-09-23 09:01:00,59.8,57.7,29.98,SW,236,1.0,2.0,93,0.00,,,0.00,WUHU216DAVISVP2,2013-09-23 16:01:00,
2013-09-23 09:03:00,59.9,57.5,29.98,SE,141,0.0,2.0,92,0.00,,,0.00,WUHU216DAVISVP2,2013-09-23 16:03:00,
2013-09-23 09:05:00,59.9,57.5,29.98,South,169,0.0,2.0,92,0.00,,,0.00,WUHU216DAVISVP2,2013-09-23 16:05:00,
2013-09-23 09:06:00,59.9,57.5,29.98,SSE,162,0.0,2.0,92,0.00,,,0.00,WUHU216DAVISVP2,2013-09-23 16:06:00,
2013-09-23 09:07:00,59.9,57.8,29.98,ESE,114,1.0,2.0,93,0.00,,,0.00,WUHU216DAVISVP2,2013-09-23 16:07:00,
2013-09-23 09:08:00,60.0,57.6,29.98,SSE,155,1.0,2.0,92,0.00,,,0.00,WUHU216DAVISVP2,2013-09-23 16:08:00,
2013-09-23 09:10:00,60.1,57.7,29.98,SE,127,0.0,2.0,92,0.00,,,0.00,WUHU216DAVISVP2,2013-09-23 16:10:00,
2013-09-23 09:11:00,60.2,57.8,29.98,SW,223,0.0,2.0,92,0.00,,,0.00,WUHU216DAVISVP2,2013-09-23 16:11:00,
2013-09-23 09:12:00,60.2,57.8,29.98,SSE,162,0.0,2.0,92,0.00,,,0.00,WUHU216DAVISVP2,2013-09-23 16:12:00,
2013-09-23 09:13:00,60.3,57.9,29.98,SE,141,1.0,2.0,92,0.00,,,0.00,WUHU216DAVISVP2,2013-09-23 16:13:00,
2013-09-23 09:15:00,60.4,57.7,29.98,SE,139,1.0,2.0,91,0.00,,,0.00,WUHU216DAVISVP2,2013-09-23 16:15:00,
2013-09-23 09:16:00,60.5,57.8,29.98,South,185,1.0,2.0,91,0.00,,,0.00,WUHU216DAVISVP2,2013-09-23 16:16:00,
2013-09-23 09:17:00,60.5,57.8,29.98,SSE,152,0.0,2.0,91,0.00,,,0.00,WUHU216DAVISVP2,2013-09-23 16:17:00,
2013-09-23 09:18:00,60.6,58.2,29.98,ESE,113,0.0,2.0,92,0.00,,,0.00,WUHU216DAVISVP2,2013-09-23 16:18:00,
2013-09-23 09:20:00,60.6,57.6,29.98,SE,134,0.0,3.0,90,0.00,,,0.00,WUHU216DAVISVP2,2013-09-23 16:20:00,
2013-09-23 09:21:00,60.6,57.7,29.98,SE,127,0.0,3.0,90,0.00,,,0.00,WUHU216DAVISVP2,2013-09-23 16:21:00,
2013-09-23 09:22:00,60.6,57.6,29.98,SSW,193,1.0,3.0,90,0.00,,,0.00,WUHU216DAVISVP2,2013-09-23 16:22:00,
2013-09-23 09:23:00,60.6,57.6,29.98,South,183,0.0,3.0,90,0.00,,,0.00,WUHU216DAVISVP2,2013-09-23 16:23:00,
2013-09-23 09:25:00,60.6,58.0,29.98,SE,140,0.0,3.0,91,0.00,,,0.00,WUHU216DAVISVP2,2013-09-23 16:25:00,
2013-09-23 09:26:00,60.6,58.0,29.98,South,172,0.0,3.0,91,0.00,,,0.00,WUHU216DAVISVP2,2013-09-23 16:26:00,
2013-09-23 09:27:00,60.6,58.0,29.98,South,172,0.0,3.0,91,0.00,,,0.00,WUHU216DAVISVP2,2013-09-23 16:27:00,
2013-09-23 09:29:00,60.6,58.0,29.99,South,172,0.0,3.0,91,0.00,,,0.00,WUHU216DAVISVP2,2013-09-23 16:29:00,
2013-09-23 09:30:00,60.7,58.1,29.99,SSE,155,0.0,3.0,91,0.00,,,0.00,WUHU216DAVISVP2,2013-09-23 16:30:00,
2013-09-23 09:31:00,60.7,57.7,29.99,SE,131,0.0,3.0,90,0.00,,,0.00,WUHU216DAVISVP2,2013-09-23 16:31:00,
2013-09-23 09:32:00,60.7,57.7,29.99,SSE,150,0.0,3.0,90,0.00,,,0.00,WUHU216DAVISVP2,2013-09-23 16:32:00,
2013-09-23 09:34:00,60.6,57.7,29.99,WSW,256,0.0,3.0,90,0.00,,,0.00,WUHU216DAVISVP2,2013-09-23 16:34:00,
2013-09-23 09:36:00,60.6,58.0,29.99,WSW,248,0.0,3.0,91,0.00,,,0.00,WUHU216DAVISVP2,2013-09-23 16:36:00,
2013-09-23 09:37:00,60.6,58.0,29.99,WSW,248,0.0,3.0,91,0.00,,,0.00,WUHU216DAVISVP2,2013-09-23 16:37:00,
2013-09-23 09:39:00,60.6,57.9,29.99,SSE,159,0.0,2.0,91,0.00,,,0.00,WUHU216DAVISVP2,2013-09-23 16:39:00,
2013-09-23 09:41:00,60.6,57.9,29.99,South,180,0.0,2.0,91,0.00,,,0.00,WUHU216DAVISVP2,2013-09-23 16:41:00,
2013-09-23 09:42:00,60.6,57.6,29.99,East,101,0.0,2.0,90,0.00,,,0.00,WUHU216DAVISVP2,2013-09-23 16:42:00,
2013-09-23 09:43:00,60.6,57.9,29.99,ESE,104,0.0,2.0,91,0.00,,,0.00,WUHU216DAVISVP2,2013-09-23 16:43:00,
2013-09-23 09:44:00,60.6,57.9,29.99,South,185,0.0,2.0,91,0.00,,,0.00,WUHU216DAVISVP2,2013-09-23 16:44:00,
2013-09-23 09:46:00,60.6,57.9,29.99,SE,146,0.0,2.0,91,0.00,,,0.00,WUHU216DAVISVP2,2013-09-23 16:46:00,
2013-09-23 09:47:00,60.6,57.6,29.99,NW,313,0.0,2.0,90,0.00,,,0.00,WUHU216DAVISVP2,2013-09-23 16:47:00,
2013-09-23 09:48:00,60.6,57.6,29.99,ESE,120,1.0,2.0,90,0.00,,,0.00,WUHU216DAVISVP2,2013-09-23 16:48:00,
2013-09-23 09:49:00,60.6,57.6,29.99,SE,127,0.0,2.0,90,0.00,,,0.00,WUHU216DAVISVP2,2013-09-23 16:49:00,
2013-09-23 09:51:00,60.7,57.7,29.99,SW,219,1.0,4.0,90,0.00,,,0.00,WUHU216DAVISVP2,2013-09-23 16:51:00,
2013-09-23 09:52:00,60.7,57.4,29.99,SW,233,0.0,4.0,89,0.00,,,0.00,WUHU216DAVISVP2,2013-09-23 16:52:00,
2013-09-23 09:53:00,60.7,57.7,30.00,ESE,107,0.0,4.0,90,0.00,,,0.00,WUHU216DAVISVP2,2013-09-23 16:53:00,
2013-09-23 09:54:00,60.8,57.8,30.00,SSE,163,0.0,4.0,90,0.00,,,0.00,WUHU216DAVISVP2,2013-09-23 16:54:00,
2013-09-23 09:56:00,60.8,57.5,29.99,West,260,0.0,4.0,89,0.00,,,0.00,WUHU216DAVISVP2,2013-09-23 16:56:00,
2013-09-23 09:57:00,60.9,57.9,29.99,ESE,116,1.0,4.0,90,0.00,,,0.00,WUHU216DAVISVP2,2013-09-23 16:57:00,
2013-09-23 09:59:00,61.0,58.0,29.99,SSE,150,0.0,4.0,90,0.00,,,0.00,WUHU216DAVISVP2,2013-09-23 16:59:00,
2013-09-23 10:00:00,61.0,58.0,30.00,SE,143,0.0,4.0,90,0.00,,,0.00,WUHU216DAVISVP2,2013-09-23 17:00:00,
2013-09-23 10:01:00,61.1,58.1,30.00,SE,146,0.0,4.0,90,0.00,,,0.00,WUHU216DAVISVP2,2013-09-23 17:01:00,
2013-09-23 10:02:00,61.1,57.8,30.00,SE,141,0.0,4.0,89,0.00,,,0.00,WUHU216DAVISVP2,2013-09-23 17:02:00,
2013-09-23 10:05:00,61.3,58.0,30.00,SSE,149,0.0,4.0,89,0.00,,,0.00,WUHU216DAVISVP2,2013-09-23 17:05:00,
2013-09-23 10:07:00,61.4,58.1,30.00,WNW,290,0.0,4.0,89,0.00,,,0.00,WUHU216DAVISVP2,2013-09-23 17:07:00,
2013-09-23 10:10:00,61.6,57.7,30.00,SSE,155,0.0,2.0,87,0.00,,,0.00,WUHU216DAVISVP2,2013-09-23 17:10:00,
2013-09-23 10:11:00,61.7,57.8,30.00,SW,228,1.0,2.0,87,0.00,,,0.00,WUHU216DAVISVP2,2013-09-23 17:11:00,
2013-09-23 10:12:00,61.7,57.8,30.00,SSE,160,2.0,2.0,87,0.00,,,0.00,WUHU216DAVISVP2,2013-09-23 17:12:00,
2013-09-23 10:15:00,61.9,57.7,30.00,WNW,299,0.0,3.0,86,0.00,,,0.00,WUHU216DAVISVP2,2013-09-23 17:15:00,
2013-09-23 10:16:00,61.9,57.7,30.00,West,267,0.0,3.0,86,0.00,,,0.00,WUHU216DAVISVP2,2013-09-23 17:16:00,
2013-09-23 10:17:00,62.0,57.8,30.00,ESE,103,0.0,3.0,86,0.00,,,0.00,WUHU216DAVISVP2,2013-09-23 17:17:00,
2013-09-23 10:18:00,62.0,57.8,30.00,WSW,240,1.0,3.0,86,0.00,,,0.00,WUHU216DAVISVP2,2013-09-23 17:18:00,
2013-09-23 10:20:00,62.0,57.4,30.00,SE,124,0.0,3.0,85,0.00,,,0.00,WUHU216DAVISVP2,2013-09-23 17:20:00,
2013-09-23 10:21:00,62.1,57.5,30.00,ESE,118,0.0,3.0,85,0.00,,,0.00,WUHU216DAVISVP2,2013-09-23 17:21:00,
2013-09-23 10:22:00,62.1,57.9,30.00,WSW,255,1.0,3.0,86,0.00,,,0.00,WUHU216DAVISVP2,2013-09-23 17:22:00,
2013-09-23 10:23:00,62.2,57.6,30.00,SSE,161,0.0,3.0,85,0.00,,,0.00,WUHU216DAVISVP2,2013-09-23 17:23:00,
2013-09-23 10:26:00,62.4,58.2,30.00,SE,127,0.0,3.0,86,0.00,,,0.00,WUHU216DAVISVP2,2013-09-23 17:26:00,
2013-09-23 10:27:00,62.5,58.3,30.00,SE,127,0.0,3.0,86,0.00,,,0.00,WUHU216DAVISVP2,2013-09-23 17:27:00,
2013-09-23 10:28:00,62.6,58.0,30.00,ESE,117,0.0,3.0,85,0.00,,,0.00,WUHU216DAVISVP2,2013-09-23 17:28:00,
2013-09-23 10:31:00,62.8,58.2,30.00,SSW,196,0.0,2.0,85,0.00,,,0.00,WUHU216DAVISVP2,2013-09-23 17:31:00,
2013-09-23 10:32:00,62.8,57.9,30.00,SE,127,0.0,2.0,84,0.00,,,0.00,WUHU216DAVISVP2,2013-09-23 17:32:00,
2013-09-23 10:33:00,62.9,57.7,30.00,SE,126,0.0,2.0,83,0.00,,,0.00,WUHU216DAVISVP2,2013-09-23 17:33:00,
2013-09-23 10:36:00,63.1,57.9,30.00,SSW,212,1.0,2.0,83,0.00,,,0.00,WUHU216DAVISVP2,2013-09-23 17:36:00,
2013-09-23 10:37:00,63.1,58.2,30.00,SE,141,1.0,2.0,84,0.00,,,0.00,WUHU216DAVISVP2,2013-09-23 17:37:00,
2013-09-23 10:38:00,63.1,58.2,30.00,SE,130,0.0,2.0,84,0.00,,,0.00,WUHU216DAVISVP2,2013-09-23 17:38:00,
2013-09-23 10:42:00,63.3,58.1,30.00,SW,214,0.0,2.0,83,0.00,,,0.00,WUHU216DAVISVP2,2013-09-23 17:42:00,
2013-09-23 10:43:00,63.4,58.5,30.00,SSW,213,0.0,2.0,84,0.00,,,0.00,WUHU216DAVISVP2,2013-09-23 17:43:00,
2013-09-23 10:44:00,63.4,57.8,30.00,South,188,0.0,2.0,82,0.00,,,0.00,WUHU216DAVISVP2,2013-09-23 17:44:00,
2013-09-23 10:47:00,63.5,58.0,30.00,SE,141,0.0,2.0,82,0.00,,,0.00,WUHU216DAVISVP2,2013-09-23 17:47:00,
2013-09-23 10:48:00,63.5,58.0,30.00,South,170,0.0,2.0,82,0.00,,,0.00,WUHU216DAVISVP2,2013-09-23 17:48:00,
2013-09-23 10:49:00,63.6,58.0,30.00,SW,227,1.0,2.0,82,0.00,,,0.00,WUHU216DAVISVP2,2013-09-23 17:49:00,
2013-09-23 10:52:00,63.7,57.8,30.00,West,259,0.0,3.0,81,0.00,,,0.00,WUHU216DAVISVP2,2013-09-23 17:52:00,
2013-09-23 10:53:00,63.7,57.8,30.00,West,272,0.0,3.0,81,0.00,,,0.00,WUHU216DAVISVP2,2013-09-23 17:53:00,
2013-09-23 10:55:00,63.7,58.1,30.00,SW,228,1.0,3.0,82,0.00,,,0.00,WUHU216DAVISVP2,2013-09-23 17:55:00,
2013-09-23 10:58:00,63.2,58.3,30.01,WSW,256,1.0,7.0,84,0.00,,,0.00,WUHU216DAVISVP2,2013-09-23 17:58:00,
2013-09-23 11:00:00,62.8,57.6,30.01,WSW,238,3.0,7.0,83,0.00,,,0.00,WUHU216DAVISVP2,2013-09-23 18:00:00,
2013-09-23 11:03:00,62.5,57.9,30.01,West,276,1.0,7.0,85,0.00,,,0.00,WUHU216DAVISVP2,2013-09-23 18:03:00,
2013-09-23 11:05:00,62.4,57.5,30.01,WNW,283,2.0,7.0,84,0.00,,,0.00,WUHU216DAVISVP2,2013-09-23 18:05:00,
2013-09-23 11:06:00,62.2,57.3,30.01,WSW,255,0.0,7.0,84,0.00,,,0.00,WUHU216DAVISVP2,2013-09-23 18:06:00,
2013-09-23 11:08:00,62.2,57.6,30.01,SW,214,0.0,7.0,85,0.00,,,0.00,WUHU216DAVISVP2,2013-09-23 18:08:00,
2013-09-23 11:09:00,62.2,57.6,30.01,SW,225,0.0,7.0,85,0.00,,,0.00,WUHU216DAVISVP2,2013-09-23 18:09:00,
2013-09-23 11:10:00,62.2,57.6,30.01,WSW,251,1.0,7.0,85,0.00,,,0.00,WUHU216DAVISVP2,2013-09-23 18:10:00,
2013-09-23 11:11:00,62.0,57.4,30.01,SW,233,1.0,7.0,85,0.00,,,0.00,WUHU216DAVISVP2,2013-09-23 18:11:00,
2013-09-23 11:13:00,61.9,57.3,30.01,SSE,149,0.0,7.0,85,0.00,,,0.00,WUHU216DAVISVP2,2013-09-23 18:13:00,
2013-09-23 11:14:00,61.9,57.3,30.01,SSE,153,1.0,7.0,85,0.00,,,0.00,WUHU216DAVISVP2,2013-09-23 18:14:00,
2013-09-23 11:15:00,61.9,57.3,30.01,WSW,258,0.0,7.0,85,0.00,,,0.00,WUHU216DAVISVP2,2013-09-23 18:15:00,
2013-09-23 11:17:00,61.8,57.6,30.01,SW,220,2.0,6.0,86,0.00,,,0.00,WUHU216DAVISVP2,2013-09-23 18:17:00,
2013-09-23 11:19:00,61.8,57.3,30.01,WSW,246,3.0,6.0,85,0.00,,,0.00,WUHU216DAVISVP2,2013-09-23 18:19:00,
2013-09-23 11:21:00,61.7,57.5,30.01,WNW,302,0.0,6.0,86,0.00,,,0.00,WUHU216DAVISVP2,2013-09-23 18:21:00,
2013-09-23 11:22:00,61.7,57.5,30.01,WSW,249,2.0,6.0,86,0.00,,,0.00,WUHU216DAVISVP2,2013-09-23 18:22:00,
2013-09-23 11:24:00,61.5,56.9,30.01,West,276,0.0,6.0,85,0.00,,,0.00,WUHU216DAVISVP2,2013-09-23 18:24:00,
2013-09-23 11:25:00,61.4,57.2,30.01,WSW,245,1.0,6.0,86,0.00,,,0.00,WUHU216DAVISVP2,2013-09-23 18:25:00,
2013-09-23 11:26:00,61.5,57.3,30.01,WSW,244,0.0,6.0,86,0.00,,,0.00,WUHU216DAVISVP2,2013-09-23 18:26:00,
2013-09-23 11:28:00,61.4,57.2,30.01,WSW,240,1.0,6.0,86,0.00,,,0.00,WUHU216DAVISVP2,2013-09-23 18:28:00,
2013-09-23 11:29:00,61.4,57.2,30.01,SW,222,0.0,6.0,86,0.00,,,0.00,WUHU216DAVISVP2,2013-09-23 18:29:00,
2013-09-23 11:30:00,61.4,57.2,30.01,SE,136,0.0,6.0,86,0.00,,,0.00,WUHU216DAVISVP2,2013-09-23 18:30:00,
2013-09-23 11:32:00,61.4,57.5,30.01,ESE,102,0.0,6.0,87,0.00,,,0.00,WUHU216DAVISVP2,2013-09-23 18:32:00,
2013-09-23 11:33:00,61.4,57.2,30.01,ESE,110,0.0,6.0,86,0.00,,,0.00,WUHU216DAVISVP2,2013-09-23 18:33:00,
2013-09-23 11:34:00,61.5,57.6,30.01,SSE,166,0.0,6.0,87,0.00,,,0.00,WUHU216DAVISVP2,2013-09-23 18:34:00,
2013-09-23 11:35:00,61.5,57.6,30.01,SSE,160,0.0,6.0,87,0.00,,,0.00,WUHU216DAVISVP2,2013-09-23 18:35:00,
2013-09-23 11:37:00,61.6,57.7,30.01,SW,235,1.0,6.0,87,0.00,,,0.00,WUHU216DAVISVP2,2013-09-23 18:37:00,
2013-09-23 11:39:00,61.6,57.4,30.01,ENE,72,2.0,5.0,86,0.00,,,0.00,WUHU216DAVISVP2,2013-09-23 18:39:00,
2013-09-23 11:40:00,61.6,57.4,30.01,SE,145,0.0,5.0,86,0.00,,,0.00,WUHU216DAVISVP2,2013-09-23 18:40:00,
2013-09-23 11:41:00,61.6,57.4,30.01,SE,127,0.0,5.0,86,0.00,,,0.00,WUHU216DAVISVP2,2013-09-23 18:41:00,
2013-09-23 11:42:00,61.7,57.5,30.01,SE,132,2.0,5.0,86,0.00,,,0.00,WUHU216DAVISVP2,2013-09-23 18:42:00,
2013-09-23 11:44:00,61.7,57.2,30.01,SSE,163,0.0,4.0,85,0.00,,,0.00,WUHU216DAVISVP2,2013-09-23 18:44:00,
2013-09-23 11:45:00,61.7,57.2,30.01,SW,224,1.0,4.0,85,0.00,,,0.00,WUHU216DAVISVP2,2013-09-23 18:45:00,
2013-09-23 11:46:00,61.7,57.5,30.01,SW,215,0.0,4.0,86,0.00,,,0.00,WUHU216DAVISVP2,2013-09-23 18:46:00,
2013-09-23 11:47:00,61.7,57.2,30.01,South,178,1.0,4.0,85,0.00,,,0.00,WUHU216DAVISVP2,2013-09-23 18:47:00,
2013-09-23 11:49:00,61.8,57.3,30.01,NW,317,0.0,4.0,85,0.00,,,0.00,WUHU216DAVISVP2,2013-09-23 18:49:00,
2013-09-23 11:51:00,61.9,57.3,30.01,ESE,112,0.0,4.0,85,0.00,,,0.00,WUHU216DAVISVP2,2013-09-23 18:51:00,
2013-09-23 11:52:00,62.0,57.4,30.01,West,266,1.0,4.0,85,0.00,,,0.00,WUHU216DAVISVP2,2013-09-23 18:52:00,
2013-09-23 11:54:00,62.2,57.3,30.02,SW,232,0.0,4.0,84,0.00,,,0.00,WUHU216DAVISVP2,2013-09-23 18:54:00,
2013-09-23 11:55:00,62.2,57.3,30.02,SE,146,2.0,4.0,84,0.00,,,0.00,WUHU216DAVISVP2,2013-09-23 18:55:00,
2013-09-23 11:57:00,62.4,56.9,30.01,ESE,103,0.0,6.0,82,0.00,,,0.00,WUHU216DAVISVP2,2013-09-23 18:57:00,
2013-09-23 12:00:00,62.7,57.2,30.01,West,270,2.0,7.0,82,0.00,,,0.00,WUHU216DAVISVP2,2013-09-23 19:00:00,
2013-09-23 12:02:00,62.9,56.7,30.01,ESE,115,0.0,7.0,80,0.00,,,0.00,WUHU216DAVISVP2,2013-09-23 19:02:00,
2013-09-23 12:05:00,62.9,55.7,30.01,ESE,111,0.0,7.0,77,0.00,,,0.00,WUHU216DAVISVP2,2013-09-23 19:05:00,
2013-09-23 12:07:00,63.0,56.1,30.01,West,276,0.0,7.0,78,0.00,,,0.00,WUHU216DAVISVP2,2013-09-23 19:07:00,
2013-09-23 12:08:00,63.1,56.6,30.01,WSW,256,0.0,7.0,79,0.00,,,0.00,WUHU216DAVISVP2,2013-09-23 19:08:00,
2013-09-23 12:10:00,63.2,56.7,30.01,West,264,0.0,7.0,79,0.00,,,0.00,WUHU216DAVISVP2,2013-09-23 19:10:00,
2013-09-23 12:12:00,63.3,56.8,30.01,ESE,110,0.0,7.0,79,0.00,,,0.00,WUHU216DAVISVP2,2013-09-23 19:12:00,
2013-09-23 12:13:00,63.3,56.8,30.01,SE,145,0.0,7.0,79,0.00,,,0.00,WUHU216DAVISVP2,2013-09-23 19:13:00,
2013-09-23 12:15:00,63.3,56.8,30.01,SSE,150,0.0,7.0,79,0.00,,,0.00,WUHU216DAVISVP2,2013-09-23 19:15:00,
2013-09-23 12:16:00,63.3,57.1,30.01,SE,133,0.0,7.0,80,0.00,,,0.00,WUHU216DAVISVP2,2013-09-23 19:16:00,
2013-09-23 12:17:00,63.4,56.8,30.01,SE,136,2.0,4.0,79,0.00,,,0.00,WUHU216DAVISVP2,2013-09-23 19:17:00,
2013-09-23 12:18:00,63.4,56.8,30.01,SW,231,0.0,4.0,79,0.00,,,0.00,WUHU216DAVISVP2,2013-09-23 19:18:00,
2013-09-23 12:20:00,63.4,57.2,30.01,SW,236,1.0,4.0,80,0.00,,,0.00,WUHU216DAVISVP2,2013-09-23 19:20:00,
2013-09-23 12:21:00,63.4,57.2,30.01,WSW,252,0.0,4.0,80,0.00,,,0.00,WUHU216DAVISVP2,2013-09-23 19:21:00,
2013-09-23 12:22:00,63.4,57.2,30.01,South,174,0.0,4.0,80,0.00,,,0.00,WUHU216DAVISVP2,2013-09-23 19:22:00,
2013-09-23 12:23:00,63.4,57.2,30.01,South,186,0.0,4.0,80,0.00,,,0.00,WUHU216DAVISVP2,2013-09-23 19:23:00,
2013-09-23 12:26:00,63.5,56.9,30.01,SW,225,0.0,4.0,79,0.00,,,0.00,WUHU216DAVISVP2,2013-09-23 19:26:00,
2013-09-23 12:27:00,63.5,56.9,30.01,South,174,0.0,4.0,79,0.00,,,0.00,WUHU216DAVISVP2,2013-09-23 19:27:00,
2013-09-23 12:28:00,63.5,56.9,30.01,South,172,4.0,4.0,79,0.00,,,0.00,WUHU216DAVISVP2,2013-09-23 19:28:00,
2013-09-23 12:31:00,63.5,57.3,30.01,WSW,247,0.0,4.0,80,0.00,,,0.00,WUHU216DAVISVP2,2013-09-23 19:31:00,
2013-09-23 12:32:00,63.5,57.3,30.01,WSW,244,0.0,4.0,80,0.00,,,0.00,WUHU216DAVISVP2,2013-09-23 19:32:00,
2013-09-23 12:33:00,63.5,57.3,30.02,SSE,148,0.0,4.0,80,0.00,,,0.00,WUHU216DAVISVP2,2013-09-23 19:33:00,
2013-09-23 12:34:00,63.5,57.3,30.02,WSW,256,1.0,4.0,80,0.00,,,0.00,WUHU216DAVISVP2,2013-09-23 19:34:00,
2013-09-23 12:36:00,63.6,57.0,30.02,SE,130,0.0,4.0,79,0.00,,,0.00,WUHU216DAVISVP2,2013-09-23 19:36:00,
2013-09-23 12:37:00,63.6,57.4,30.02,South,172,0.0,4.0,80,0.00,,,0.00,WUHU216DAVISVP2,2013-09-23 19:37:00,
2013-09-23 12:38:00,63.6,57.4,30.02,South,176,0.0,4.0,80,0.00,,,0.00,WUHU216DAVISVP2,2013-09-23 19:38:00,
2013-09-23 12:39:00,63.6,57.0,30.02,South,178,0.0,4.0,79,0.00,,,0.00,WUHU216DAVISVP2,2013-09-23 19:39:00,
2013-09-23 12:42:00,63.7,57.1,30.02,WSW,248,1.0,4.0,79,0.00,,,0.00,WUHU216DAVISVP2,2013-09-23 19:42:00,
2013-09-23 12:43:00,63.7,57.5,30.01,SE,132,3.0,4.0,80,0.00,,,0.00,WUHU216DAVISVP2,2013-09-23 19:43:00,
2013-09-23 12:44:00,63.7,56.8,30.01,SE,139,1.0,4.0,78,0.00,,,0.00,WUHU216DAVISVP2,2013-09-23 19:44:00,
2013-09-23 12:47:00,63.6,56.7,30.02,ESE,118,1.0,4.0,78,0.00,,,0.00,WUHU216DAVISVP2,2013-09-23 19:47:00,
2013-09-23 12:48:00,63.5,56.9,30.02,WSW,248,2.0,4.0,79,0.00,,,0.00,WUHU216DAVISVP2,2013-09-23 19:48:00,
2013-09-23 12:49:00,63.5,56.3,30.01,SSE,160,1.0,4.0,77,0.00,,,0.00,WUHU216DAVISVP2,2013-09-23 19:49:00,
2013-09-23 12:52:00,63.4,56.5,30.02,ESE,122,0.0,4.0,78,0.00,,,0.00,WUHU216DAVISVP2,2013-09-23 19:52:00,
2013-09-23 12:53:00,63.5,56.9,30.02,SW,224,0.0,4.0,79,0.00,,,0.00,WUHU216DAVISVP2,2013-09-23 19:53:00,
2013-09-23 12:54:00,63.5,56.9,30.02,SE,141,0.0,4.0,79,0.00,,,0.00,WUHU216DAVISVP2,2013-09-23 19:54:00,
2013-09-23 12:57:00,63.6,56.7,30.02,SSW,205,0.0,4.0,78,0.00,,,0.00,WUHU216DAVISVP2,2013-09-23 19:57:00,
2013-09-23 12:58:00,63.7,56.8,30.02,ESE,113,0.0,4.0,78,0.00,,,0.00,WUHU216DAVISVP2,2013-09-23 19:58:00,
2013-09-23 12:59:00,63.7,56.8,30.02,SE,129,0.0,4.0,78,0.00,,,0.00,WUHU216DAVISVP2,2013-09-23 19:59:00,
2013-09-23 13:02:00,63.7,55.7,30.02,SW,231,1.0,7.0,75,0.00,,,0.00,WUHU216DAVISVP2,2013-09-23 20:02:00,
2013-09-23 13:04:00,63.7,55.7,30.02,West,274,1.0,7.0,75,0.00,,,0.00,WUHU216DAVISVP2,2013-09-23 20:04:00,
2013-09-23 13:05:00,63.8,55.5,30.02,SE,125,1.0,7.0,74,0.00,,,0.00,WUHU216DAVISVP2,2013-09-23 20:05:00,
2013-09-23 13:07:00,63.8,55.5,30.02,South,175,0.0,7.0,74,0.00,,,0.00,WUHU216DAVISVP2,2013-09-23 20:07:00,
2013-09-23 13:09:00,63.9,55.6,30.02,SW,224,0.0,7.0,74,0.00,,,0.00,WUHU216DAVISVP2,2013-09-23 20:09:00,
2013-09-23 13:10:00,63.9,55.6,30.02,SSE,148,0.0,7.0,74,0.00,,,0.00,WUHU216DAVISVP2,2013-09-23 20:10:00,
2013-09-23 13:12:00,63.9,55.2,30.02,WSW,238,1.0,7.0,73,0.00,,,0.00,WUHU216DAVISVP2,2013-09-23 20:12:00,
2013-09-23 13:13:00,63.9,55.6,30.02,SSW,207,0.0,7.0,74,0.00,,,0.00,WUHU216DAVISVP2,2013-09-23 20:13:00,
2013-09-23 13:14:00,63.9,55.4,30.02,SW,226,0.0,7.0,74,0.00,,,0.00,WUHU216DAVISVP2,2013-09-23 20:14:00,
2013-09-23 13:15:00,63.9,55.6,30.02,West,260,0.0,7.0,74,0.00,,,0.00,WUHU216DAVISVP2,2013-09-23 20:15:00,
2013-09-23 13:17:00,63.9,55.4,30.02,WSW,257,1.0,7.0,74,0.00,,,0.00,WUHU216DAVISVP2,2013-09-23 20:17:00,
2013-09-23 13:18:00,63.9,55.4,30.02,South,169,1.0,7.0,74,0.00,,,0.00,WUHU216DAVISVP2,2013-09-23 20:18:00,
2013-09-23 13:19:00,63.8,55.8,30.02,WSW,242,6.0,9.0,75,0.00,,,0.00,WUHU216DAVISVP2,2013-09-23 20:19:00,
2013-09-23 13:20:00,63.7,55.3,30.02,WSW,243,3.0,9.0,74,0.00,,,0.00,WUHU216DAVISVP2,2013-09-23 20:20:00,
2013-09-23 13:22:00,63.6,55.2,30.02,South,176,2.0,9.0,74,0.00,,,0.00,WUHU216DAVISVP2,2013-09-23 20:22:00,
2013-09-23 13:23:00,63.5,55.5,30.02,SW,217,0.0,9.0,75,0.00,,,0.00,WUHU216DAVISVP2,2013-09-23 20:23:00,
2013-09-23 13:24:00,63.5,55.4,30.02,SW,217,0.0,9.0,75,0.00,,,0.00,WUHU216DAVISVP2,2013-09-23 20:24:00,
2013-09-23 13:27:00,63.5,55.4,30.02,SW,216,1.0,9.0,75,0.00,,,0.00,WUHU216DAVISVP2,2013-09-23 20:27:00,
2013-09-23 13:28:00,63.5,55.8,30.02,WSW,258,1.0,9.0,76,0.00,,,0.00,WUHU216DAVISVP2,2013-09-23 20:28:00,
2013-09-23 13:29:00,63.5,55.4,30.02,West,264,1.0,9.0,75,0.00,,,0.00,WUHU216DAVISVP2,2013-09-23 20:29:00,
2013-09-23 13:32:00,63.3,54.9,30.02,West,262,1.0,9.0,74,0.00,,,0.00,WUHU216DAVISVP2,2013-09-23 20:32:00,
2013-09-23 13:33:00,63.3,55.2,30.02,SSE,150,0.0,9.0,75,0.00,,,0.00,WUHU216DAVISVP2,2013-09-23 20:33:00,
2013-09-23 13:34:00,63.3,55.2,30.02,SE,129,0.0,9.0,75,0.00,,,0.00,WUHU216DAVISVP2,2013-09-23 20:34:00,
2013-09-23 13:35:00,63.2,55.1,30.02,SW,221,0.0,9.0,75,0.00,,,0.00,WUHU216DAVISVP2,2013-09-23 20:35:00,
2013-09-23 13:37:00,63.1,55.0,30.02,NW,306,0.0,9.0,75,0.00,,,0.00,WUHU216DAVISVP2,2013-09-23 20:37:00,
2013-09-23 13:38:00,63.1,55.0,30.02,SE,131,0.0,5.0,75,0.00,,,0.00,WUHU216DAVISVP2,2013-09-23 20:38:00,
2013-09-23 13:39:00,63.0,54.9,30.02,WSW,250,0.0,3.0,75,0.00,,,0.00,WUHU216DAVISVP2,2013-09-23 20:39:00,
2013-09-23 13:40:00,63.0,55.1,30.02,SW,221,0.0,4.0,75,0.00,,,0.00,WUHU216DAVISVP2,2013-09-23 20:40:00,
2013-09-23 13:42:00,62.9,54.9,30.02,WSW,257,1.0,4.0,75,0.00,,,0.00,WUHU216DAVISVP2,2013-09-23 20:42:00,
2013-09-23 13:44:00,62.8,54.8,30.02,SSW,198,2.0,4.0,75,0.00,,,0.00,WUHU216DAVISVP2,2013-09-23 20:44:00,
2013-09-23 13:46:00,62.6,54.6,30.02,SW,234,0.0,4.0,75,0.00,,,0.00,WUHU216DAVISVP2,2013-09-23 20:46:00,
2013-09-23 13:47:00,62.6,54.6,30.02,SW,218,1.0,4.0,75,0.00,,,0.00,WUHU216DAVISVP2,2013-09-23 20:47:00,
2013-09-23 13:49:00,62.4,54.5,30.02,ESE,113,1.0,4.0,75,0.00,,,0.00,WUHU216DAVISVP2,2013-09-23 20:49:00,
2013-09-23 13:51:00,62.4,54.7,30.02,WSW,256,3.0,6.0,76,0.00,,,0.00,WUHU216DAVISVP2,2013-09-23 20:51:00,
2013-09-23 13:52:00,62.3,54.7,30.02,West,259,0.0,6.0,76,0.00,,,0.00,WUHU216DAVISVP2,2013-09-23 20:52:00,
2013-09-23 13:54:00,62.3,54.7,30.02,SSE,151,0.0,6.0,76,0.00,,,0.00,WUHU216DAVISVP2,2013-09-23 20:54:00,
2013-09-23 13:55:00,62.2,54.6,30.02,ESE,108,0.0,6.0,76,0.00,,,0.00,WUHU216DAVISVP2,2013-09-23 20:55:00,
2013-09-23 13:56:00,62.2,54.5,30.02,East,96,2.0,6.0,76,0.00,,,0.00,WUHU216DAVISVP2,2013-09-23 20:56:00,
2013-09-23 13:57:00,62.2,54.6,30.02,ESE,114,0.0,6.0,76,0.00,,,0.00,WUHU216DAVISVP2,2013-09-23 20:57:00,
2013-09-23 13:59:00,62.2,55.0,30.02,WSW,245,0.0,6.0,77,0.00,,,0.00,WUHU216DAVISVP2,2013-09-23 20:59:00,
2013-09-23 14:00:00,62.2,55.0,30.02,WSW,246,0.0,6.0,77,0.00,,,0.00,WUHU216DAVISVP2,2013-09-23 21:00:00,
2013-09-23 14:01:00,62.1,54.9,30.02,SE,138,0.0,6.0,77,0.00,,,0.00,WUHU216DAVISVP2,2013-09-23 21:01:00,
2013-09-23 14:02:00,62.1,54.4,30.02,SSW,199,0.0,6.0,76,0.00,,,0.00,WUHU216DAVISVP2,2013-09-23 21:02:00,
2013-09-23 14:05:00,62.1,54.4,30.02,SSW,198,1.0,6.0,76,0.00,,,0.00,WUHU216DAVISVP2,2013-09-23 21:05:00,
2013-09-23 14:06:00,62.0,54.7,30.02,SE,145,1.0,6.0,77,0.00,,,0.00,WUHU216DAVISVP2,2013-09-23 21:06:00,
2013-09-23 14:07:00,62.0,54.7,30.02,South,190,0.0,6.0,77,0.00,,,0.00,WUHU216DAVISVP2,2013-09-23 21:07:00,
2013-09-23 14:10:00,61.9,54.6,30.02,WSW,239,0.0,6.0,77,0.00,,,0.00,WUHU216DAVISVP2,2013-09-23 21:10:00,
2013-09-23 14:11:00,61.9,55.0,30.02,SE,131,0.0,4.0,78,0.00,,,0.00,WUHU216DAVISVP2,2013-09-23 21:11:00,
2013-09-23 14:12:00,61.9,55.3,30.02,SSW,210,0.0,4.0,79,0.00,,,0.00,WUHU216DAVISVP2,2013-09-23 21:12:00,
2013-09-23 14:15:00,61.8,54.9,30.02,East,82,1.0,4.0,78,0.00,,,0.00,WUHU216DAVISVP2,2013-09-23 21:15:00,
2013-09-23 14:16:00,61.8,55.2,30.02,West,274,0.0,4.0,79,0.00,,,0.00,WUHU216DAVISVP2,2013-09-23 21:16:00,
2013-09-23 14:17:00,61.8,55.2,30.02,West,259,3.0,4.0,79,0.00,,,0.00,WUHU216DAVISVP2,2013-09-23 21:17:00,
2013-09-23 14:18:00,61.7,55.8,30.02,WSW,245,0.0,4.0,81,0.00,,,0.00,WUHU216DAVISVP2,2013-09-23 21:18:00,
2013-09-23 14:20:00,61.5,55.6,30.02,ESE,122,0.0,4.0,81,0.00,,,0.00,WUHU216DAVISVP2,2013-09-23 21:20:00,
2013-09-23 14:21:00,61.5,55.6,30.02,SE,131,0.0,4.0,81,0.00,,,0.00,WUHU216DAVISVP2,2013-09-23 21:21:00,
2013-09-23 14:22:00,61.4,55.5,30.02,SW,224,0.0,4.0,81,0.00,,,0.00,WUHU216DAVISVP2,2013-09-23 21:22:00,
2013-09-23 14:23:00,61.4,55.9,30.02,SE,124,0.0,4.0,82,0.00,,,0.00,WUHU216DAVISVP2,2013-09-23 21:23:00,
2013-09-23 14:25:00,61.2,55.7,30.02,SW,227,0.0,8.0,82,0.00,,,0.00,WUHU216DAVISVP2,2013-09-23 21:25:00,
2013-09-23 14:26:00,61.1,55.9,30.02,WSW,244,0.0,8.0,83,0.00,,,0.00,WUHU216DAVISVP2,2013-09-23 21:26:00,
2013-09-23 14:27:00,61.1,55.9,30.02,SW,236,1.0,8.0,83,0.00,,,0.00,WUHU216DAVISVP2,2013-09-23 21:27:00,
2013-09-23 14:28:00,61.0,55.8,30.02,West,271,0.0,8.0,83,0.00,,,0.00,WUHU216DAVISVP2,2013-09-23 21:28:00,
2013-09-23 14:30:00,60.9,55.7,30.02,WSW,240,0.0,8.0,83,0.00,,,0.00,WUHU216DAVISVP2,2013-09-23 21:30:00,
2013-09-23 14:31:00,60.9,56.0,30.02,WSW,242,3.0,8.0,84,0.00,,,0.00,WUHU216DAVISVP2,2013-09-23 21:31:00,
2013-09-23 14:32:00,60.9,56.1,30.02,SW,236,3.0,8.0,84,0.00,,,0.00,WUHU216DAVISVP2,2013-09-23 21:32:00,
2013-09-23 14:33:00,60.9,56.0,30.02,WSW,244,4.0,8.0,84,0.00,,,0.00,WUHU216DAVISVP2,2013-09-23 21:33:00,
2013-09-23 14:35:00,60.8,56.3,30.03,West,262,1.0,8.0,85,0.00,,,0.00,WUHU216DAVISVP2,2013-09-23 21:35:00,
2013-09-23 14:36:00,60.7,56.2,30.03,SSE,162,0.0,8.0,85,0.00,,,0.00,WUHU216DAVISVP2,2013-09-23 21:36:00,
2013-09-23 14:37:00,60.7,56.5,30.02,WNW,292,0.0,8.0,86,0.00,,,0.00,WUHU216DAVISVP2,2013-09-23 21:37:00,
2013-09-23 14:38:00,60.6,56.4,30.03,WSW,256,3.0,8.0,86,0.00,,,0.00,WUHU216DAVISVP2,2013-09-23 21:38:00,
2013-09-23 14:40:00,60.3,56.1,30.03,WNW,295,2.0,8.0,86,0.00,,,0.00,WUHU216DAVISVP2,2013-09-23 21:40:00,
2013-09-23 14:41:00,60.2,56.3,30.02,WSW,250,1.0,8.0,87,0.00,,,0.00,WUHU216DAVISVP2,2013-09-23 21:41:00,
2013-09-23 14:42:00,60.0,56.7,30.03,SW,226,0.0,8.0,89,0.00,,,0.00,WUHU216DAVISVP2,2013-09-23 21:42:00,
2013-09-23 14:43:00,59.9,56.6,30.02,West,262,2.0,7.0,89,0.00,,,0.00,WUHU216DAVISVP2,2013-09-23 21:43:00,
2013-09-23 14:44:00,59.9,56.6,30.02,SSW,193,0.0,6.0,89,0.00,,,0.00,WUHU216DAVISVP2,2013-09-23 21:44:00,
2013-09-23 14:45:00,59.7,56.5,30.02,SSW,199,0.0,6.0,89,0.00,,,0.00,WUHU216DAVISVP2,2013-09-23 21:45:00,
2013-09-23 14:47:00,59.7,56.8,30.02,SE,130,0.0,6.0,90,0.00,,,0.00,WUHU216DAVISVP2,2013-09-23 21:47:00,
2013-09-23 14:48:00,59.7,56.8,30.02,WSW,243,0.0,6.0,90,0.00,,,0.00,WUHU216DAVISVP2,2013-09-23 21:48:00,
2013-09-23 14:49:00,59.7,56.7,30.02,ESE,106,1.0,6.0,90,0.00,,,0.00,WUHU216DAVISVP2,2013-09-23 21:49:00,
2013-09-23 14:51:00,59.7,57.0,30.02,SSE,158,0.0,6.0,91,0.00,,,0.00,WUHU216DAVISVP2,2013-09-23 21:51:00,
2013-09-23 14:52:00,59.7,57.1,30.02,WNW,285,0.0,6.0,91,0.00,,,0.00,WUHU216DAVISVP2,2013-09-23 21:52:00,
2013-09-23 14:53:00,59.6,56.7,30.02,ESE,120,0.0,5.0,90,0.00,,,0.00,WUHU216DAVISVP2,2013-09-23 21:53:00,
2013-09-23 14:54:00,59.6,56.7,30.02,WSW,256,1.0,5.0,90,0.00,,,0.00,WUHU216DAVISVP2,2013-09-23 21:54:00,
2013-09-23 14:56:00,59.6,57.0,30.02,SSE,149,1.0,5.0,91,0.00,,,0.00,WUHU216DAVISVP2,2013-09-23 21:56:00,
2013-09-23 14:57:00,59.6,57.0,30.02,SE,143,0.0,5.0,91,0.00,,,0.00,WUHU216DAVISVP2,2013-09-23 21:57:00,
2013-09-23 14:58:00,59.5,56.9,30.02,SSE,155,0.0,5.0,91,0.00,,,0.00,WUHU216DAVISVP2,2013-09-23 21:58:00,
2013-09-23 14:59:00,59.5,56.9,30.02,East,94,0.0,5.0,91,0.00,,,0.00,WUHU216DAVISVP2,2013-09-23 21:59:00,
2013-09-23 15:01:00,59.5,56.9,30.02,SE,130,0.0,5.0,91,0.00,,,0.00,WUHU216DAVISVP2,2013-09-23 22:01:00,
2013-09-23 15:02:00,59.5,56.9,30.02,SE,143,1.0,5.0,91,0.00,,,0.00,WUHU216DAVISVP2,2013-09-23 22:02:00,
2013-09-23 15:03:00,59.5,56.9,30.02,ESE,111,1.0,3.0,91,0.00,,,0.00,WUHU216DAVISVP2,2013-09-23 22:03:00,
2013-09-23 15:05:00,59.5,56.9,30.02,WNW,297,1.0,3.0,91,0.00,,,0.00,WUHU216DAVISVP2,2013-09-23 22:05:00,
2013-09-23 15:06:00,59.5,56.9,30.02,SSE,162,0.0,3.0,91,0.00,,,0.00,WUHU216DAVISVP2,2013-09-23 22:06:00,
2013-09-23 15:07:00,59.5,56.6,30.02,WSW,237,1.0,3.0,90,0.00,,,0.00,WUHU216DAVISVP2,2013-09-23 22:07:00,
2013-09-23 15:08:00,59.5,56.6,30.02,NW,304,0.0,3.0,90,0.00,,,0.00,WUHU216DAVISVP2,2013-09-23 22:08:00,
2013-09-23 15:10:00,59.6,57.0,30.02,WSW,257,0.0,3.0,91,0.00,,,0.00,WUHU216DAVISVP2,2013-09-23 22:10:00,
2013-09-23 15:11:00,59.6,57.0,30.02,SSE,155,0.0,3.0,91,0.00,,,0.00,WUHU216DAVISVP2,2013-09-23 22:11:00,
2013-09-23 15:13:00,59.6,56.7,30.02,SE,136,1.0,5.0,90,0.00,,,0.00,WUHU216DAVISVP2,2013-09-23 22:13:00,
2013-09-23 15:14:00,59.6,57.0,30.02,SE,145,1.0,5.0,91,0.00,,,0.00,WUHU216DAVISVP2,2013-09-23 22:14:00,
2013-09-23 15:15:00,59.7,57.1,30.02,SW,225,0.0,5.0,91,0.00,,,0.00,WUHU216DAVISVP2,2013-09-23 22:15:00,
2013-09-23 15:16:00,59.7,57.0,30.02,WNW,303,0.0,5.0,91,0.00,,,0.00,WUHU216DAVISVP2,2013-09-23 22:16:00,
2013-09-23 15:18:00,59.7,56.7,30.02,WSW,240,1.0,5.0,90,0.00,,,0.00,WUHU216DAVISVP2,2013-09-23 22:18:00,
2013-09-23 15:19:00,59.7,56.7,30.02,WSW,244,0.0,5.0,90,0.00,,,0.00,WUHU216DAVISVP2,2013-09-23 22:19:00,
2013-09-23 15:21:00,59.7,56.7,30.02,WNW,296,0.0,6.0,90,0.00,,,0.00,WUHU216DAVISVP2,2013-09-23 22:21:00,
2013-09-23 15:23:00,59.8,56.8,30.02,WNW,289,1.0,6.0,90,0.00,,,0.00,WUHU216DAVISVP2,2013-09-23 22:23:00,
2013-09-23 15:24:00,59.8,56.8,30.02,West,277,1.0,6.0,90,0.00,,,0.00,WUHU216DAVISVP2,2013-09-23 22:24:00,
2013-09-23 15:26:00,59.9,56.9,30.02,SW,233,4.0,6.0,90,0.00,,,0.00,WUHU216DAVISVP2,2013-09-23 22:26:00,
2013-09-23 15:28:00,59.9,56.6,30.02,West,274,7.0,7.0,89,0.00,,,0.00,WUHU216DAVISVP2,2013-09-23 22:28:00,
2013-09-23 15:29:00,59.9,56.6,30.03,West,259,1.0,7.0,89,0.00,,,0.00,WUHU216DAVISVP2,2013-09-23 22:29:00,
2013-09-23 15:31:00,59.7,56.4,30.03,West,260,5.0,8.0,89,0.02,,,0.02,WUHU216DAVISVP2,2013-09-23 22:31:00,
2013-09-23 15:33:00,59.1,55.8,30.03,WSW,237,4.0,10.0,89,0.08,,,0.08,WUHU216DAVISVP2,2013-09-23 22:33:00,
2013-09-23 15:34:00,58.8,55.2,30.03,SW,224,0.0,10.0,88,0.09,,,0.09,WUHU216DAVISVP2,2013-09-23 22:34:00,
2013-09-23 15:36:00,57.9,55.0,30.03,SW,221,3.0,10.0,90,0.10,,,0.10,WUHU216DAVISVP2,2013-09-23 22:36:00,
2013-09-23 15:39:00,57.4,54.5,30.03,NW,323,1.0,10.0,90,0.10,,,0.10,WUHU216DAVISVP2,2013-09-23 22:39:00,
2013-09-23 15:41:00,57.0,55.0,30.03,West,271,4.0,10.0,93,0.11,,,0.11,WUHU216DAVISVP2,2013-09-23 22:41:00,
2013-09-23 15:44:00,56.9,55.2,30.03,WNW,290,0.0,10.0,94,0.12,,,0.12,WUHU216DAVISVP2,2013-09-23 22:44:00,
2013-09-23 15:45:00,56.9,55.2,30.03,NNW,337,0.0,10.0,94,0.12,,,0.12,WUHU216DAVISVP2,2013-09-23 22:45:00,
2013-09-23 15:47:00,56.9,55.4,30.03,WSW,240,1.0,10.0,95,0.12,,,0.12,WUHU216DAVISVP2,2013-09-23 22:47:00,
2013-09-23 15:49:00,57.0,55.5,30.03,SW,230,0.0,10.0,95,0.12,,,0.12,WUHU216DAVISVP2,2013-09-23 22:49:00,
2013-09-23 15:50:00,57.1,55.9,30.03,West,274,2.0,10.0,96,0.12,,,0.12,WUHU216DAVISVP2,2013-09-23 22:50:00,
2013-09-23 15:52:00,57.1,55.6,30.03,WSW,238,0.0,7.0,95,0.12,,,0.12,WUHU216DAVISVP2,2013-09-23 22:52:00,
2013-09-23 15:54:00,57.2,55.7,30.03,West,268,0.0,6.0,95,0.12,,,0.12,WUHU216DAVISVP2,2013-09-23 22:54:00,
2013-09-23 15:55:00,57.2,55.7,30.03,West,263,1.0,6.0,95,0.12,,,0.12,WUHU216DAVISVP2,2013-09-23 22:55:00,
2013-09-23 15:57:00,57.3,55.8,30.03,SW,221,0.0,6.0,95,0.12,,,0.12,WUHU216DAVISVP2,2013-09-23 22:57:00,
2013-09-23 15:59:00,57.3,55.8,30.02,SSW,207,0.0,6.0,95,0.12,,,0.12,WUHU216DAVISVP2,2013-09-23 22:59:00,
2013-09-23 16:00:00,57.4,55.9,30.03,WSW,254,1.0,6.0,95,0.12,,,0.12,WUHU216DAVISVP2,2013-09-23 23:00:00,
2013-09-23 16:02:00,57.4,55.9,30.03,SSW,198,0.0,6.0,95,0.12,,,0.12,WUHU216DAVISVP2,2013-09-23 23:02:00,
2013-09-23 16:03:00,57.5,56.3,30.03,SSW,198,0.0,6.0,96,0.12,,,0.12,WUHU216DAVISVP2,2013-09-23 23:03:00,
2013-09-23 16:04:00,57.6,56.4,30.03,West,277,0.0,6.0,96,0.12,,,0.12,WUHU216DAVISVP2,2013-09-23 23:04:00,
2013-09-23 16:05:00,57.6,56.4,30.03,West,277,0.0,6.0,96,0.12,,,0.12,WUHU216DAVISVP2,2013-09-23 23:05:00,
2013-09-23 16:07:00,57.7,56.5,30.03,SW,234,0.0,6.0,96,0.12,,,0.12,WUHU216DAVISVP2,2013-09-23 23:07:00,
2013-09-23 16:08:00,57.8,56.6,30.03,WSW,241,0.0,6.0,96,0.12,,,0.12,WUHU216DAVISVP2,2013-09-23 23:08:00,
2013-09-23 16:10:00,57.8,56.6,30.03,SSE,165,0.0,6.0,96,0.12,,,0.12,WUHU216DAVISVP2,2013-09-23 23:10:00,
2013-09-23 16:11:00,57.9,56.7,30.03,SSE,150,0.0,6.0,96,0.12,,,0.12,WUHU216DAVISVP2,2013-09-23 23:11:00,
2013-09-23 16:12:00,58.0,56.8,30.03,South,169,0.0,3.0,96,0.12,,,0.12,WUHU216DAVISVP2,2013-09-23 23:12:00,
2013-09-23 16:14:00,58.1,56.9,30.03,South,169,0.0,3.0,96,0.12,,,0.12,WUHU216DAVISVP2,2013-09-23 23:14:00,
2013-09-23 16:15:00,58.2,57.0,30.03,ESE,105,0.0,2.0,96,0.12,,,0.12,WUHU216DAVISVP2,2013-09-23 23:15:00,
2013-09-23 16:16:00,58.2,57.0,30.03,SE,132,1.0,2.0,96,0.12,,,0.12,WUHU216DAVISVP2,2013-09-23 23:16:00,
2013-09-23 16:17:00,58.3,57.1,30.03,South,169,0.0,2.0,96,0.12,,,0.12,WUHU216DAVISVP2,2013-09-23 23:17:00,
2013-09-23 16:19:00,58.3,57.1,30.03,South,188,0.0,2.0,96,0.12,,,0.12,WUHU216DAVISVP2,2013-09-23 23:19:00,
2013-09-23 16:20:00,58.4,57.2,30.03,SSE,150,0.0,2.0,96,0.12,,,0.12,WUHU216DAVISVP2,2013-09-23 23:20:00,
2013-09-23 16:21:00,58.4,57.2,30.03,SSE,150,0.0,2.0,96,0.12,,,0.12,WUHU216DAVISVP2,2013-09-23 23:21:00,
2013-09-23 16:22:00,58.4,57.2,30.03,West,262,3.0,3.0,96,0.12,,,0.12,WUHU216DAVISVP2,2013-09-23 23:22:00,
2013-09-23 16:24:00,58.4,57.2,30.03,WSW,252,0.0,4.0,96,0.12,,,0.12,WUHU216DAVISVP2,2013-09-23 23:24:00,
2013-09-23 16:25:00,58.5,57.0,30.03,SSW,192,0.0,4.0,95,0.12,,,0.12,WUHU216DAVISVP2,2013-09-23 23:25:00,
2013-09-23 16:26:00,58.5,57.3,30.03,West,259,1.0,4.0,96,0.12,,,0.12,WUHU216DAVISVP2,2013-09-23 23:26:00,
2013-09-23 16:28:00,58.5,57.0,30.02,WNW,295,0.0,4.0,95,0.12,,,0.12,WUHU216DAVISVP2,2013-09-23 23:28:00,
2013-09-23 16:29:00,58.6,57.1,30.03,East,82,0.0,4.0,95,0.12,,,0.12,WUHU216DAVISVP2,2013-09-23 23:29:00,
2013-09-23 16:30:00,58.6,57.1,30.03,WSW,247,0.0,4.0,95,0.12,,,0.12,WUHU216DAVISVP2,2013-09-23 23:30:00,
2013-09-23 16:31:00,58.6,57.1,30.03,WSW,237,0.0,4.0,95,0.11,,,0.12,WUHU216DAVISVP2,2013-09-23 23:31:00,
2013-09-23 16:33:00,58.7,57.2,30.03,WSW,248,0.0,4.0,95,0.07,,,0.12,WUHU216DAVISVP2,2013-09-23 23:33:00,
2013-09-23 16:34:00,58.8,57.6,30.03,WSW,242,0.0,4.0,96,0.03,,,0.12,WUHU216DAVISVP2,2013-09-23 23:34:00,
2013-09-23 16:35:00,58.8,57.3,30.03,West,270,0.0,4.0,95,0.03,,,0.12,WUHU216DAVISVP2,2013-09-23 23:35:00,
2013-09-23 16:36:00,58.8,57.6,30.03,West,268,0.0,4.0,96,0.02,,,0.12,WUHU216DAVISVP2,2013-09-23 23:36:00,
2013-09-23 16:38:00,58.9,57.4,30.03,West,269,0.0,4.0,95,0.02,,,0.12,WUHU216DAVISVP2,2013-09-23 23:38:00,
2013-09-23 16:39:00,58.9,57.4,30.02,SSE,148,0.0,4.0,95,0.01,,,0.12,WUHU216DAVISVP2,2013-09-23 23:39:00,
2013-09-23 16:40:00,59.0,57.5,30.03,West,271,0.0,4.0,95,0.01,,,0.12,WUHU216DAVISVP2,2013-09-23 23:40:00,
2013-09-23 16:41:00,59.0,57.5,30.02,West,271,0.0,4.0,95,0.01,,,0.12,WUHU216DAVISVP2,2013-09-23 23:41:00,
2013-09-23 16:43:00,59.1,57.6,30.03,WSW,257,0.0,3.0,95,0.00,,,0.12,WUHU216DAVISVP2,2013-09-23 23:43:00,
2013-09-23 16:44:00,59.1,57.6,30.02,SW,219,0.0,3.0,95,0.00,,,0.12,WUHU216DAVISVP2,2013-09-23 23:44:00,
2013-09-23 16:45:00,59.1,57.6,30.03,SW,236,0.0,3.0,95,0.00,,,0.12,WUHU216DAVISVP2,2013-09-23 23:45:00,
2013-09-23 16:46:00,59.2,57.7,30.03,WSW,254,0.0,3.0,95,0.00,,,0.12,WUHU216DAVISVP2,2013-09-23 23:46:00,
2013-09-23 16:48:00,59.2,57.7,30.03,SE,146,0.0,3.0,95,0.00,,,0.12,WUHU216DAVISVP2,2013-09-23 23:48:00,
2013-09-23 16:49:00,59.2,57.4,30.03,SW,225,0.0,3.0,94,0.00,,,0.12,WUHU216DAVISVP2,2013-09-23 23:49:00,
2013-09-23 16:50:00,59.3,57.8,30.03,WSW,240,1.0,3.0,95,0.00,,,0.12,WUHU216DAVISVP2,2013-09-23 23:50:00,
2013-09-23 16:51:00,59.3,57.5,30.03,SSE,168,0.0,3.0,94,0.00,,,0.12,WUHU216DAVISVP2,2013-09-23 23:51:00,
2013-09-23 16:53:00,59.3,57.5,30.03,WSW,251,1.0,3.0,94,0.00,,,0.12,WUHU216DAVISVP2,2013-09-23 23:53:00,
2013-09-23 16:54:00,59.2,57.4,30.03,WSW,258,0.0,3.0,94,0.00,,,0.12,WUHU216DAVISVP2,2013-09-23 23:54:00,
2013-09-23 16:55:00,59.3,57.5,30.03,SW,236,1.0,3.0,94,0.00,,,0.12,WUHU216DAVISVP2,2013-09-23 23:55:00,
2013-09-23 16:56:00,59.2,57.4,30.03,NW,309,0.0,3.0,94,0.00,,,0.12,WUHU216DAVISVP2,2013-09-23 23:56:00,
2013-09-23 16:58:00,59.2,57.4,30.03,WSW,245,0.0,3.0,94,0.00,,,0.12,WUHU216DAVISVP2,2013-09-23 23:58:00,
2013-09-23 17:00:00,59.2,57.4,30.03,SSW,212,1.0,3.0,94,0.00,,,0.12,WUHU216DAVISVP2,2013-09-24 00:00:00,
2013-09-23 17:01:00,59.1,57.3,30.03,SW,231,0.0,3.0,94,0.00,,,0.12,WUHU216DAVISVP2,2013-09-24 00:01:00,
2013-09-23 17:04:00,59.1,57.6,30.03,WNW,290,2.0,3.0,95,0.00,,,0.12,WUHU216DAVISVP2,2013-09-24 00:04:00,
2013-09-23 17:05:00,59.1,57.6,30.03,NW,314,0.0,3.0,95,0.00,,,0.12,WUHU216DAVISVP2,2013-09-24 00:05:00,
2013-09-23 17:06:00,59.1,57.6,30.03,West,261,2.0,3.0,95,0.00,,,0.12,WUHU216DAVISVP2,2013-09-24 00:06:00,
2013-09-23 17:09:00,59.0,57.5,30.03,SW,229,0.0,3.0,95,0.00,,,0.12,WUHU216DAVISVP2,2013-09-24 00:09:00,
2013-09-23 17:10:00,59.0,57.2,30.03,SW,215,0.0,3.0,94,0.00,,,0.12,WUHU216DAVISVP2,2013-09-24 00:10:00,
2013-09-23 17:11:00,59.0,57.2,30.03,SW,231,0.0,3.0,94,0.00,,,0.12,WUHU216DAVISVP2,2013-09-24 00:11:00,
2013-09-23 17:12:00,59.0,57.5,30.03,WSW,254,0.0,3.0,95,0.00,,,0.12,WUHU216DAVISVP2,2013-09-24 00:12:00,
2013-09-23 17:14:00,59.1,57.6,30.02,SSE,155,0.0,3.0,95,0.00,,,0.12,WUHU216DAVISVP2,2013-09-24 00:14:00,
2013-09-23 17:16:00,59.0,57.5,30.03,WSW,244,0.0,3.0,95,0.00,,,0.12,WUHU216DAVISVP2,2013-09-24 00:16:00,
2013-09-23 17:17:00,59.0,57.5,30.03,West,262,0.0,3.0,95,0.00,,,0.12,WUHU216DAVISVP2,2013-09-24 00:17:00,
2013-09-23 17:19:00,59.0,57.5,30.03,West,277,0.0,3.0,95,0.00,,,0.12,WUHU216DAVISVP2,2013-09-24 00:19:00,
2013-09-23 17:21:00,59.0,57.2,30.03,SW,230,0.0,3.0,94,0.00,,,0.12,WUHU216DAVISVP2,2013-09-24 00:21:00,
2013-09-23 17:22:00,59.0,57.2,30.03,SW,219,0.0,3.0,94,0.00,,,0.12,WUHU216DAVISVP2,2013-09-24 00:22:00,
2013-09-23 17:24:00,59.0,57.5,30.03,SSW,193,0.0,3.0,95,0.00,,,0.12,WUHU216DAVISVP2,2013-09-24 00:24:00,
2013-09-23 17:26:00,58.9,57.1,30.03,WSW,243,3.0,4.0,94,0.00,,,0.12,WUHU216DAVISVP2,2013-09-24 00:26:00,
2013-09-23 17:27:00,58.9,57.1,30.03,SW,222,3.0,5.0,94,0.00,,,0.12,WUHU216DAVISVP2,2013-09-24 00:27:00,
2013-09-23 17:29:00,58.9,57.1,30.02,SW,236,0.0,5.0,94,0.00,,,0.12,WUHU216DAVISVP2,2013-09-24 00:29:00,
2013-09-23 17:31:00,58.8,57.0,30.02,NW,323,2.0,6.0,94,0.00,,,0.12,WUHU216DAVISVP2,2013-09-24 00:31:00,
2013-09-23 17:33:00,58.7,56.9,30.03,WSW,252,0.0,6.0,94,0.00,,,0.12,WUHU216DAVISVP2,2013-09-24 00:33:00,
2013-09-23 17:34:00,58.7,56.9,30.03,West,266,0.0,6.0,94,0.00,,,0.12,WUHU216DAVISVP2,2013-09-24 00:34:00,
2013-09-23 17:36:00,58.6,57.1,30.03,NW,312,0.0,6.0,95,0.00,,,0.12,WUHU216DAVISVP2,2013-09-24 00:36:00,
2013-09-23 17:37:00,58.6,57.1,30.03,WSW,255,3.0,6.0,95,0.00,,,0.12,WUHU216DAVISVP2,2013-09-24 00:37:00,
2013-09-23 17:38:00,58.5,56.7,30.03,SSW,211,3.0,6.0,94,0.00,,,0.12,WUHU216DAVISVP2,2013-09-24 00:38:00,
2013-09-23 17:39:00,58.4,56.6,30.02,West,259,1.0,6.0,94,0.00,,,0.12,WUHU216DAVISVP2,2013-09-24 00:39:00,
2013-09-23 17:41:00,58.3,56.5,30.03,North,358,1.0,6.0,94,0.00,,,0.12,WUHU216DAVISVP2,2013-09-24 00:41:00,
2013-09-23 17:42:00,58.2,56.4,30.03,West,270,3.0,6.0,94,0.00,,,0.12,WUHU216DAVISVP2,2013-09-24 00:42:00,
2013-09-23 17:43:00,58.1,56.3,30.03,WSW,248,1.0,6.0,94,0.00,,,0.12,WUHU216DAVISVP2,2013-09-24 00:43:00,
2013-09-23 17:44:00,58.0,56.2,30.03,SW,231,0.0,6.0,94,0.00,,,0.12,WUHU216DAVISVP2,2013-09-24 00:44:00,
2013-09-23 17:47:00,58.0,56.2,30.03,WSW,242,0.0,6.0,94,0.00,,,0.12,WUHU216DAVISVP2,2013-09-24 00:47:00,
2013-09-23 17:49:00,57.8,56.0,30.03,SW,225,2.0,6.0,94,0.01,,,0.13,WUHU216DAVISVP2,2013-09-24 00:49:00,
2013-09-23 17:50:00,57.8,56.0,30.03,WSW,252,0.0,6.0,94,0.01,,,0.13,WUHU216DAVISVP2,2013-09-24 00:50:00,
2013-09-23 17:52:00,57.7,55.9,30.03,SW,219,1.0,6.0,94,0.01,,,0.13,WUHU216DAVISVP2,2013-09-24 00:52:00,
2013-09-23 17:54:00,57.6,55.6,30.03,SW,235,0.0,6.0,93,0.01,,,0.13,WUHU216DAVISVP2,2013-09-24 00:54:00,
2013-09-23 17:55:00,57.6,55.6,30.03,West,273,0.0,6.0,93,0.01,,,0.13,WUHU216DAVISVP2,2013-09-24 00:55:00,
2013-09-23 17:57:00,57.5,55.5,30.03,West,271,0.0,4.0,93,0.01,,,0.13,WUHU216DAVISVP2,2013-09-24 00:57:00,
2013-09-23 17:58:00,57.5,55.5,30.03,SW,229,2.0,4.0,93,0.01,,,0.13,WUHU216DAVISVP2,2013-09-24 00:58:00,
2013-09-23 17:59:00,57.5,55.5,30.03,West,281,1.0,4.0,93,0.01,,,0.13,WUHU216DAVISVP2,2013-09-24 00:59:00,
2013-09-23 18:00:00,57.4,55.4,30.03,SW,214,1.0,4.0,93,0.01,,,0.13,WUHU216DAVISVP2,2013-09-24 01:00:00,
2013-09-23 18:02:00,57.4,55.6,30.02,West,276,2.0,4.0,94,0.01,,,0.13,WUHU216DAVISVP2,2013-09-24 01:02:00,
2013-09-23 18:03:00,57.4,55.6,30.02,SSW,210,1.0,4.0,94,0.01,,,0.13,WUHU216DAVISVP2,2013-09-24 01:03:00,
2013-09-23 18:04:00,57.4,55.6,30.02,West,267,0.0,4.0,94,0.01,,,0.13,WUHU216DAVISVP2,2013-09-24 01:04:00,
2013-09-23 18:05:00,57.4,55.6,30.02,SW,214,0.0,4.0,94,0.01,,,0.13,WUHU216DAVISVP2,2013-09-24 01:05:00,
2013-09-23 18:07:00,57.3,55.6,30.02,SW,217,0.0,4.0,94,0.01,,,0.13,WUHU216DAVISVP2,2013-09-24 01:07:00,
2013-09-23 18:08:00,57.4,55.7,30.02,WSW,244,0.0,3.0,94,0.01,,,0.13,WUHU216DAVISVP2,2013-09-24 01:08:00,
2013-09-23 18:09:00,57.3,55.5,30.02,WSW,245,0.0,3.0,94,0.01,,,0.13,WUHU216DAVISVP2,2013-09-24 01:09:00,
2013-09-23 18:10:00,57.3,55.8,30.02,WSW,244,0.0,3.0,95,0.01,,,0.13,WUHU216DAVISVP2,2013-09-24 01:10:00,
2013-09-23 18:12:00,57.3,55.8,30.02,WSW,244,0.0,3.0,95,0.01,,,0.13,WUHU216DAVISVP2,2013-09-24 01:12:00,
2013-09-23 18:14:00,57.3,55.8,30.02,WSW,244,0.0,3.0,95,0.01,,,0.13,WUHU216DAVISVP2,2013-09-24 01:14:00,
2013-09-23 18:15:00,57.3,55.8,30.02,WSW,244,0.0,3.0,95,0.01,,,0.13,WUHU216DAVISVP2,2013-09-24 01:15:00,
2013-09-23 18:17:00,57.3,55.9,30.02,WSW,244,0.0,3.0,95,0.01,,,0.13,WUHU216DAVISVP2,2013-09-24 01:17:00,
2013-09-23 18:19:00,57.3,55.9,30.02,South,188,0.0,3.0,95,0.01,,,0.13,WUHU216DAVISVP2,2013-09-24 01:19:00,
2013-09-23 18:20:00,57.3,55.9,30.02,SSW,192,0.0,3.0,95,0.01,,,0.13,WUHU216DAVISVP2,2013-09-24 01:20:00,
2013-09-23 18:22:00,57.3,55.8,30.02,SSW,192,0.0,3.0,95,0.01,,,0.13,WUHU216DAVISVP2,2013-09-24 01:22:00,
2013-09-23 18:23:00,57.3,56.1,30.02,SSW,192,0.0,2.0,96,0.01,,,0.13,WUHU216DAVISVP2,2013-09-24 01:23:00,
2013-09-23 18:24:00,57.3,56.1,30.02,SW,222,0.0,1.0,96,0.01,,,0.13,WUHU216DAVISVP2,2013-09-24 01:24:00,
2013-09-23 18:26:00,57.3,56.1,30.02,WNW,287,0.0,1.0,96,0.01,,,0.13,WUHU216DAVISVP2,2013-09-24 01:26:00,
2013-09-23 18:27:00,57.3,56.1,30.02,WNW,287,0.0,1.0,96,0.01,,,0.13,WUHU216DAVISVP2,2013-09-24 01:27:00,
2013-09-23 18:28:00,57.4,56.2,30.02,WNW,287,0.0,1.0,96,0.01,,,0.13,WUHU216DAVISVP2,2013-09-24 01:28:00,
2013-09-23 18:30:00,57.4,56.2,30.02,WNW,287,0.0,1.0,96,0.01,,,0.13,WUHU216DAVISVP2,2013-09-24 01:30:00,
2013-09-23 18:31:00,57.4,56.2,30.02,WNW,287,0.0,1.0,96,0.01,,,0.13,WUHU216DAVISVP2,2013-09-24 01:31:00,
2013-09-23 18:32:00,57.4,56.2,30.02,WNW,287,0.0,1.0,96,0.01,,,0.13,WUHU216DAVISVP2,2013-09-24 01:32:00,
2013-09-23 18:33:00,57.4,56.2,30.02,WNW,287,0.0,1.0,96,0.01,,,0.13,WUHU216DAVISVP2,2013-09-24 01:33:00,
2013-09-23 18:35:00,57.4,56.3,30.02,NE,52,0.0,1.0,96,0.01,,,0.13,WUHU216DAVISVP2,2013-09-24 01:35:00,
2013-09-23 18:36:00,57.4,56.3,30.02,ENE,58,0.0,1.0,96,0.01,,,0.13,WUHU216DAVISVP2,2013-09-24 01:36:00,
2013-09-23 18:38:00,57.4,56.3,30.02,ENE,58,0.0,1.0,96,0.01,,,0.13,WUHU216DAVISVP2,2013-09-24 01:38:00,
2013-09-23 18:40:00,57.4,56.2,30.02,ENE,58,0.0,1.0,96,0.01,,,0.13,WUHU216DAVISVP2,2013-09-24 01:40:00,
2013-09-23 18:42:00,57.4,56.2,30.02,ENE,58,0.0,1.0,96,0.01,,,0.13,WUHU216DAVISVP2,2013-09-24 01:42:00,
2013-09-23 18:43:00,57.3,56.1,30.02,ENE,58,0.0,1.0,96,0.01,,,0.13,WUHU216DAVISVP2,2013-09-24 01:43:00,
2013-09-23 18:44:00,57.3,56.1,30.02,ENE,58,0.0,1.0,96,0.01,,,0.13,WUHU216DAVISVP2,2013-09-24 01:44:00,
2013-09-23 18:45:00,57.3,56.1,30.02,ENE,58,0.0,0.0,96,0.01,,,0.13,WUHU216DAVISVP2,2013-09-24 01:45:00,
2013-09-23 18:47:00,57.3,56.1,30.02,ENE,58,0.0,0.0,96,0.01,,,0.13,WUHU216DAVISVP2,2013-09-24 01:47:00,
2013-09-23 18:48:00,57.3,56.1,30.02,ENE,58,0.0,0.0,96,0.00,,,0.13,WUHU216DAVISVP2,2013-09-24 01:48:00,
2013-09-23 18:50:00,57.3,56.1,30.02,ENE,58,0.0,0.0,96,0.00,,,0.13,WUHU216DAVISVP2,2013-09-24 01:50:00,
2013-09-23 18:52:00,57.3,56.4,30.02,ENE,58,0.0,0.0,97,0.00,,,0.13,WUHU216DAVISVP2,2013-09-24 01:52:00,
2013-09-23 18:53:00,57.3,56.4,30.02,ENE,58,0.0,0.0,97,0.00,,,0.13,WUHU216DAVISVP2,2013-09-24 01:53:00,
2013-09-23 18:55:00,57.3,56.4,30.03,ENE,58,0.0,0.0,97,0.00,,,0.13,WUHU216DAVISVP2,2013-09-24 01:55:00,
2013-09-23 18:56:00,57.3,56.5,30.03,ENE,58,0.0,0.0,97,0.00,,,0.13,WUHU216DAVISVP2,2013-09-24 01:56:00,
2013-09-23 18:57:00,57.3,56.5,30.02,ENE,58,0.0,0.0,97,0.00,,,0.13,WUHU216DAVISVP2,2013-09-24 01:57:00,
2013-09-23 18:58:00,57.3,56.5,30.02,ENE,58,0.0,0.0,97,0.00,,,0.13,WUHU216DAVISVP2,2013-09-24 01:58:00,
2013-09-23 19:01:00,57.2,56.0,30.02,ENE,58,0.0,0.0,96,0.00,,,0.13,WUHU216DAVISVP2,2013-09-24 02:01:00,
2013-09-23 19:03:00,57.1,56.0,30.03,ENE,58,0.0,0.0,96,0.00,,,0.13,WUHU216DAVISVP2,2013-09-24 02:03:00,
2013-09-23 19:06:00,57.1,56.2,30.02,ENE,59,0.0,0.0,97,0.00,,,0.13,WUHU216DAVISVP2,2013-09-24 02:06:00,
2013-09-23 19:07:00,57.1,56.2,30.02,ENE,59,0.0,0.0,97,0.00,,,0.13,WUHU216DAVISVP2,2013-09-24 02:07:00,
2013-09-23 19:08:00,57.1,56.2,30.02,ENE,59,0.0,0.0,97,0.00,,,0.13,WUHU216DAVISVP2,2013-09-24 02:08:00,
2013-09-23 19:11:00,57.0,56.1,30.02,ENE,59,0.0,0.0,97,0.00,,,0.13,WUHU216DAVISVP2,2013-09-24 02:11:00,
2013-09-23 19:12:00,57.0,56.1,30.02,ENE,59,0.0,0.0,97,0.00,,,0.13,WUHU216DAVISVP2,2013-09-24 02:12:00,
2013-09-23 19:13:00,57.0,56.1,30.02,ENE,59,0.0,0.0,97,0.00,,,0.13,WUHU216DAVISVP2,2013-09-24 02:13:00,
2013-09-23 19:16:00,57.0,56.1,30.02,ENE,59,0.0,0.0,97,0.00,,,0.13,WUHU216DAVISVP2,2013-09-24 02:16:00,
2013-09-23 19:17:00,57.0,56.1,30.02,ENE,59,0.0,0.0,97,0.00,,,0.13,WUHU216DAVISVP2,2013-09-24 02:17:00,
2013-09-23 19:18:00,57.0,56.1,30.02,ENE,59,0.0,0.0,97,0.00,,,0.13,WUHU216DAVISVP2,2013-09-24 02:18:00,
2013-09-23 19:21:00,57.0,56.1,30.02,ENE,59,0.0,0.0,97,0.00,,,0.13,WUHU216DAVISVP2,2013-09-24 02:21:00,
2013-09-23 19:22:00,57.0,56.1,30.02,ENE,59,0.0,0.0,97,0.00,,,0.13,WUHU216DAVISVP2,2013-09-24 02:22:00,
2013-09-23 19:23:00,57.0,56.1,30.02,ENE,59,0.0,0.0,97,0.00,,,0.13,WUHU216DAVISVP2,2013-09-24 02:23:00,
2013-09-23 19:27:00,57.0,56.1,30.02,ENE,59,0.0,0.0,97,0.00,,,0.13,WUHU216DAVISVP2,2013-09-24 02:27:00,
2013-09-23 19:28:00,57.0,56.1,30.02,ENE,59,0.0,0.0,97,0.00,,,0.13,WUHU216DAVISVP2,2013-09-24 02:28:00,
2013-09-23 19:32:00,56.9,56.0,30.02,ENE,59,0.0,0.0,97,0.00,,,0.13,WUHU216DAVISVP2,2013-09-24 02:32:00,
2013-09-23 19:33:00,56.9,56.0,30.02,ENE,59,0.0,0.0,97,0.00,,,0.13,WUHU216DAVISVP2,2013-09-24 02:33:00,
2013-09-23 19:37:00,56.8,55.9,30.02,ENE,59,0.0,0.0,97,0.00,,,0.13,WUHU216DAVISVP2,2013-09-24 02:37:00,
2013-09-23 19:38:00,56.8,55.9,30.02,ENE,59,0.0,0.0,97,0.00,,,0.13,WUHU216DAVISVP2,2013-09-24 02:38:00,
2013-09-23 19:42:00,56.8,56.0,30.02,ENE,59,0.0,0.0,97,0.00,,,0.13,WUHU216DAVISVP2,2013-09-24 02:42:00,
2013-09-23 19:43:00,56.8,56.0,30.02,ENE,59,0.0,0.0,97,0.00,,,0.13,WUHU216DAVISVP2,2013-09-24 02:43:00,
2013-09-23 19:47:00,56.6,55.8,30.02,ENE,59,0.0,0.0,97,0.00,,,0.13,WUHU216DAVISVP2,2013-09-24 02:47:00,
2013-09-23 19:48:00,56.6,55.8,30.02,ENE,59,0.0,0.0,97,0.00,,,0.13,WUHU216DAVISVP2,2013-09-24 02:48:00,
2013-09-23 19:49:00,56.6,55.8,30.02,ENE,59,0.0,0.0,97,0.00,,,0.13,WUHU216DAVISVP2,2013-09-24 02:49:00,
2013-09-23 19:52:00,56.6,55.8,30.02,ENE,59,0.0,0.0,97,0.00,,,0.13,WUHU216DAVISVP2,2013-09-24 02:52:00,
2013-09-23 19:53:00,56.5,55.6,30.02,ENE,59,0.0,0.0,97,0.00,,,0.13,WUHU216DAVISVP2,2013-09-24 02:53:00,
2013-09-23 19:54:00,56.5,55.7,30.02,ENE,59,0.0,0.0,97,0.00,,,0.13,WUHU216DAVISVP2,2013-09-24 02:54:00,
2013-09-23 19:58:00,56.5,55.6,30.02,ENE,59,0.0,0.0,97,0.00,,,0.13,WUHU216DAVISVP2,2013-09-24 02:58:00,
2013-09-23 19:59:00,56.5,55.6,30.02,ENE,59,0.0,0.0,97,0.00,,,0.13,WUHU216DAVISVP2,2013-09-24 02:59:00,
2013-09-23 20:03:00,56.5,55.6,30.02,ENE,59,0.0,0.0,97,0.00,,,0.13,WUHU216DAVISVP2,2013-09-24 03:03:00,
2013-09-23 20:04:00,56.4,55.5,30.02,ENE,59,0.0,0.0,97,0.00,,,0.13,WUHU216DAVISVP2,2013-09-24 03:04:00,
2013-09-23 20:05:00,56.4,55.5,30.03,ENE,59,0.0,0.0,97,0.00,,,0.13,WUHU216DAVISVP2,2013-09-24 03:05:00,
2013-09-23 20:08:00,56.4,55.5,30.03,ENE,59,0.0,0.0,97,0.00,,,0.13,WUHU216DAVISVP2,2013-09-24 03:08:00,
2013-09-23 20:09:00,56.4,55.5,30.02,ENE,59,0.0,0.0,97,0.00,,,0.13,WUHU216DAVISVP2,2013-09-24 03:09:00,
2013-09-23 20:10:00,56.4,55.5,30.03,ENE,59,0.0,0.0,97,0.00,,,0.13,WUHU216DAVISVP2,2013-09-24 03:10:00,
2013-09-23 20:13:00,56.3,55.4,30.03,ENE,59,0.0,0.0,97,0.00,,,0.13,WUHU216DAVISVP2,2013-09-24 03:13:00,
2013-09-23 20:14:00,56.3,55.4,30.03,ENE,59,0.0,0.0,97,0.00,,,0.13,WUHU216DAVISVP2,2013-09-24 03:14:00,
2013-09-23 20:15:00,56.3,55.4,30.03,ENE,59,0.0,0.0,97,0.00,,,0.13,WUHU216DAVISVP2,2013-09-24 03:15:00,
2013-09-23 20:16:00,56.3,55.4,30.03,ENE,59,0.0,0.0,97,0.00,,,0.13,WUHU216DAVISVP2,2013-09-24 03:16:00,
2013-09-23 20:18:00,56.3,55.4,30.03,ENE,59,0.0,0.0,97,0.00,,,0.13,WUHU216DAVISVP2,2013-09-24 03:18:00,
2013-09-23 20:19:00,56.3,55.4,30.03,ENE,59,0.0,0.0,97,0.00,,,0.13,WUHU216DAVISVP2,2013-09-24 03:19:00,
2013-09-23 20:20:00,56.3,55.4,30.03,ENE,59,0.0,0.0,97,0.00,,,0.13,WUHU216DAVISVP2,2013-09-24 03:20:00,
2013-09-23 20:21:00,56.3,55.4,30.03,ENE,59,0.0,0.0,97,0.00,,,0.13,WUHU216DAVISVP2,2013-09-24 03:21:00,
2013-09-23 20:24:00,56.3,55.4,30.03,ENE,59,0.0,0.0,97,0.00,,,0.13,WUHU216DAVISVP2,2013-09-24 03:24:00,
2013-09-23 20:25:00,56.3,55.4,30.03,ENE,59,0.0,0.0,97,0.00,,,0.13,WUHU216DAVISVP2,2013-09-24 03:25:00,
2013-09-23 20:26:00,56.3,55.4,30.03,ENE,67,0.0,0.0,97,0.00,,,0.13,WUHU216DAVISVP2,2013-09-24 03:26:00,
2013-09-23 20:29:00,56.3,55.4,30.03,SE,146,0.0,1.0,97,0.00,,,0.13,WUHU216DAVISVP2,2013-09-24 03:29:00,
2013-09-23 20:30:00,56.3,55.4,30.03,SE,146,0.0,1.0,97,0.00,,,0.13,WUHU216DAVISVP2,2013-09-24 03:30:00,
2013-09-23 20:34:00,56.3,55.4,30.03,SE,146,0.0,1.0,97,0.00,,,0.13,WUHU216DAVISVP2,2013-09-24 03:34:00,
2013-09-23 20:35:00,56.3,55.4,30.03,SE,146,0.0,1.0,97,0.00,,,0.13,WUHU216DAVISVP2,2013-09-24 03:35:00,
2013-09-23 20:39:00,56.3,55.4,30.03,East,98,0.0,1.0,97,0.00,,,0.13,WUHU216DAVISVP2,2013-09-24 03:39:00,
2013-09-23 20:40:00,56.3,55.4,30.03,ESE,106,0.0,1.0,97,0.00,,,0.13,WUHU216DAVISVP2,2013-09-24 03:40:00,
2013-09-23 20:44:00,56.3,55.4,30.03,SE,139,0.0,1.0,97,0.00,,,0.13,WUHU216DAVISVP2,2013-09-24 03:44:00,
2013-09-23 20:45:00,56.3,55.4,30.03,SE,139,0.0,1.0,97,0.00,,,0.13,WUHU216DAVISVP2,2013-09-24 03:45:00,
2013-09-23 20:49:00,56.3,55.4,30.03,SE,142,0.0,1.0,97,0.00,,,0.13,WUHU216DAVISVP2,2013-09-24 03:49:00,
2013-09-23 20:50:00,56.3,55.4,30.03,SE,142,0.0,1.0,97,0.00,,,0.13,WUHU216DAVISVP2,2013-09-24 03:50:00,
2013-09-23 20:51:00,56.3,55.4,30.03,SE,142,0.0,1.0,97,0.00,,,0.13,WUHU216DAVISVP2,2013-09-24 03:51:00,
2013-09-23 20:54:00,56.3,55.4,30.03,SSE,150,0.0,1.0,97,0.00,,,0.13,WUHU216DAVISVP2,2013-09-24 03:54:00,
2013-09-23 20:55:00,56.3,55.5,30.03,SSE,150,0.0,1.0,97,0.00,,,0.13,WUHU216DAVISVP2,2013-09-24 03:55:00,
2013-09-23 20:56:00,56.2,55.3,30.03,SSE,150,0.0,1.0,97,0.00,,,0.13,WUHU216DAVISVP2,2013-09-24 03:56:00,
2013-09-23 20:59:00,56.3,55.4,30.03,SE,129,0.0,1.0,97,0.00,,,0.13,WUHU216DAVISVP2,2013-09-24 03:59:00,
2013-09-23 21:00:00,56.3,55.4,30.03,South,169,0.0,1.0,97,0.00,,,0.13,WUHU216DAVISVP2,2013-09-24 04:00:00,
2013-09-23 21:01:00,56.3,55.4,30.03,South,169,0.0,1.0,97,0.00,,,0.13,WUHU216DAVISVP2,2013-09-24 04:01:00,
2013-09-23 21:06:00,56.3,55.4,30.03,SSE,158,0.0,2.0,97,0.00,,,0.13,WUHU216DAVISVP2,2013-09-24 04:06:00,
2013-09-23 21:07:00,56.3,55.4,30.03,SSW,196,0.0,2.0,97,0.00,,,0.13,WUHU216DAVISVP2,2013-09-24 04:07:00,
2013-09-23 21:11:00,56.2,55.3,30.03,SSW,210,0.0,2.0,97,0.00,,,0.13,WUHU216DAVISVP2,2013-09-24 04:11:00,
2013-09-23 21:12:00,56.2,55.3,30.03,SSW,209,0.0,2.0,97,0.00,,,0.13,WUHU216DAVISVP2,2013-09-24 04:12:00,
2013-09-23 21:16:00,56.2,55.3,30.03,SSW,210,0.0,2.0,97,0.00,,,0.13,WUHU216DAVISVP2,2013-09-24 04:16:00,
2013-09-23 21:17:00,56.2,55.3,30.03,SSW,210,0.0,2.0,97,0.00,,,0.13,WUHU216DAVISVP2,2013-09-24 04:17:00,
2013-09-23 21:21:00,56.2,55.3,30.03,SE,146,0.0,2.0,97,0.00,,,0.13,WUHU216DAVISVP2,2013-09-24 04:21:00,
2013-09-23 21:22:00,56.2,55.3,30.03,SW,226,1.0,1.0,97,0.00,,,0.13,WUHU216DAVISVP2,2013-09-24 04:22:00,
2013-09-23 21:26:00,56.1,55.2,30.03,SSE,149,0.0,1.0,97,0.00,,,0.13,WUHU216DAVISVP2,2013-09-24 04:26:00,
2013-09-23 21:27:00,56.1,55.2,30.03,SSE,149,0.0,1.0,97,0.00,,,0.13,WUHU216DAVISVP2,2013-09-24 04:27:00,
2013-09-23 21:32:00,56.1,55.2,30.03,ESE,110,0.0,1.0,97,0.00,,,0.13,WUHU216DAVISVP2,2013-09-24 04:32:00,
2013-09-23 21:33:00,56.1,54.9,30.03,ESE,110,0.0,1.0,96,0.00,,,0.13,WUHU216DAVISVP2,2013-09-24 04:33:00,
2013-09-23 21:37:00,56.0,55.2,30.03,ESE,110,0.0,1.0,97,0.00,,,0.13,WUHU216DAVISVP2,2013-09-24 04:37:00,
2013-09-23 21:38:00,56.0,55.2,30.03,ESE,110,0.0,1.0,97,0.00,,,0.13,WUHU216DAVISVP2,2013-09-24 04:38:00,
2013-09-23 21:42:00,56.0,55.1,30.03,ESE,110,0.0,0.0,97,0.00,,,0.13,WUHU216DAVISVP2,2013-09-24 04:42:00,
2013-09-23 21:43:00,56.0,55.1,30.03,ESE,122,0.0,1.0,97,0.00,,,0.13,WUHU216DAVISVP2,2013-09-24 04:43:00,
2013-09-23 21:47:00,55.9,55.0,30.03,ESE,122,0.0,1.0,97,0.00,,,0.13,WUHU216DAVISVP2,2013-09-24 04:47:00,
2013-09-23 21:48:00,55.9,55.0,30.02,ESE,122,0.0,1.0,97,0.00,,,0.13,WUHU216DAVISVP2,2013-09-24 04:48:00,
2013-09-23 21:52:00,55.9,55.1,30.03,ESE,122,0.0,1.0,97,0.00,,,0.13,WUHU216DAVISVP2,2013-09-24 04:52:00,
2013-09-23 21:53:00,55.9,55.0,30.03,ESE,122,0.0,1.0,97,0.00,,,0.13,WUHU216DAVISVP2,2013-09-24 04:53:00,
2013-09-23 21:54:00,55.9,55.0,30.03,ESE,122,0.0,1.0,97,0.00,,,0.13,WUHU216DAVISVP2,2013-09-24 04:54:00,
2013-09-23 21:57:00,55.9,55.0,30.03,ESE,122,0.0,1.0,97,0.00,,,0.13,WUHU216DAVISVP2,2013-09-24 04:57:00,
2013-09-23 21:58:00,55.9,55.0,30.03,ESE,122,0.0,1.0,97,0.00,,,0.13,WUHU216DAVISVP2,2013-09-24 04:58:00,
2013-09-23 21:59:00,55.9,55.0,30.03,ESE,122,0.0,1.0,97,0.00,,,0.13,WUHU216DAVISVP2,2013-09-24 04:59:00,
2013-09-23 22:02:00,55.8,54.9,30.02,ESE,122,0.0,0.0,97,0.00,,,0.13,WUHU216DAVISVP2,2013-09-24 05:02:00,
2013-09-23 22:03:00,55.8,54.9,30.02,ESE,122,0.0,0.0,97,0.00,,,0.13,WUHU216DAVISVP2,2013-09-24 05:03:00,
2013-09-23 22:04:00,55.8,54.9,30.02,ESE,122,0.0,0.0,97,0.00,,,0.13,WUHU216DAVISVP2,2013-09-24 05:04:00,
2013-09-23 22:07:00,55.8,54.9,30.02,ESE,122,0.0,0.0,97,0.00,,,0.13,WUHU216DAVISVP2,2013-09-24 05:07:00,
2013-09-23 22:08:00,55.8,54.9,30.02,ESE,122,0.0,0.0,97,0.00,,,0.13,WUHU216DAVISVP2,2013-09-24 05:08:00,
2013-09-23 22:09:00,55.8,54.9,30.02,ESE,122,0.0,0.0,97,0.00,,,0.13,WUHU216DAVISVP2,2013-09-24 05:09:00,
2013-09-23 22:13:00,55.8,55.0,30.02,ESE,122,0.0,0.0,97,0.00,,,0.13,WUHU216DAVISVP2,2013-09-24 05:13:00,
2013-09-23 22:14:00,55.7,54.9,30.02,ESE,122,0.0,0.0,97,0.00,,,0.13,WUHU216DAVISVP2,2013-09-24 05:14:00,
2013-09-23 22:18:00,55.7,54.8,30.02,ESE,122,0.0,0.0,97,0.00,,,0.13,WUHU216DAVISVP2,2013-09-24 05:18:00,
2013-09-23 22:19:00,55.7,54.8,30.02,ESE,122,0.0,0.0,97,0.00,,,0.13,WUHU216DAVISVP2,2013-09-24 05:19:00,
2013-09-23 22:20:00,55.7,54.8,30.02,ESE,122,0.0,0.0,97,0.00,,,0.13,WUHU216DAVISVP2,2013-09-24 05:20:00,
2013-09-23 22:23:00,55.7,54.8,30.02,ESE,122,0.0,0.0,97,0.00,,,0.13,WUHU216DAVISVP2,2013-09-24 05:23:00,
2013-09-23 22:24:00,55.7,54.8,30.02,ESE,122,0.0,0.0,97,0.00,,,0.13,WUHU216DAVISVP2,2013-09-24 05:24:00,
2013-09-23 22:25:00,55.7,54.8,30.02,ESE,122,0.0,0.0,97,0.00,,,0.13,WUHU216DAVISVP2,2013-09-24 05:25:00,
2013-09-23 22:28:00,55.7,54.8,30.02,ESE,122,0.0,0.0,97,0.00,,,0.13,WUHU216DAVISVP2,2013-09-24 05:28:00,
2013-09-23 22:29:00,55.7,54.8,30.02,ESE,122,0.0,0.0,97,0.00,,,0.13,WUHU216DAVISVP2,2013-09-24 05:29:00,
2013-09-23 22:30:00,55.6,54.7,30.02,ESE,122,0.0,0.0,97,0.00,,,0.13,WUHU216DAVISVP2,2013-09-24 05:30:00,
2013-09-23 22:33:00,55.6,54.7,30.02,ESE,122,0.0,0.0,97,0.00,,,0.13,WUHU216DAVISVP2,2013-09-24 05:33:00,
2013-09-23 22:34:00,55.6,54.7,30.02,ESE,122,0.0,0.0,97,0.00,,,0.13,WUHU216DAVISVP2,2013-09-24 05:34:00,
2013-09-23 22:35:00,55.6,54.7,30.02,ESE,122,0.0,0.0,97,0.00,,,0.13,WUHU216DAVISVP2,2013-09-24 05:35:00,
2013-09-23 22:36:00,55.6,54.7,30.02,ESE,122,0.0,0.0,97,0.00,,,0.13,WUHU216DAVISVP2,2013-09-24 05:36:00,
2013-09-23 22:38:00,55.6,54.7,30.02,ESE,122,0.0,0.0,97,0.00,,,0.13,WUHU216DAVISVP2,2013-09-24 05:38:00,
2013-09-23 22:39:00,55.6,54.7,30.02,ESE,122,0.0,0.0,97,0.00,,,0.13,WUHU216DAVISVP2,2013-09-24 05:39:00,
2013-09-23 22:40:00,55.6,54.7,30.02,ESE,122,0.0,0.0,97,0.00,,,0.13,WUHU216DAVISVP2,2013-09-24 05:40:00,
2013-09-23 22:41:00,55.6,54.8,30.02,ESE,122,0.0,0.0,97,0.00,,,0.13,WUHU216DAVISVP2,2013-09-24 05:41:00,
2013-09-23 22:43:00,55.5,54.7,30.02,ESE,122,0.0,0.0,97,0.00,,,0.13,WUHU216DAVISVP2,2013-09-24 05:43:00,
2013-09-23 22:44:00,55.6,54.8,30.02,ESE,122,0.0,0.0,97,0.00,,,0.13,WUHU216DAVISVP2,2013-09-24 05:44:00,
2013-09-23 22:45:00,55.5,54.7,30.02,ESE,122,0.0,0.0,97,0.00,,,0.13,WUHU216DAVISVP2,2013-09-24 05:45:00,
2013-09-23 22:46:00,55.5,54.9,30.02,ESE,122,0.0,0.0,98,0.00,,,0.13,WUHU216DAVISVP2,2013-09-24 05:46:00,
2013-09-23 22:48:00,55.5,54.9,30.02,ESE,122,0.0,0.0,98,0.00,,,0.13,WUHU216DAVISVP2,2013-09-24 05:48:00,
2013-09-23 22:49:00,55.5,54.9,30.02,ESE,122,0.0,0.0,98,0.00,,,0.13,WUHU216DAVISVP2,2013-09-24 05:49:00,
2013-09-23 22:50:00,55.5,54.9,30.02,ESE,122,0.0,0.0,98,0.00,,,0.13,WUHU216DAVISVP2,2013-09-24 05:50:00,
2013-09-23 22:51:00,55.5,54.9,30.02,ESE,122,0.0,0.0,98,0.00,,,0.13,WUHU216DAVISVP2,2013-09-24 05:51:00,
2013-09-23 22:53:00,55.5,54.9,30.02,ESE,122,0.0,0.0,98,0.00,,,0.13,WUHU216DAVISVP2,2013-09-24 05:53:00,
2013-09-23 22:54:00,55.4,54.8,30.02,ESE,122,0.0,0.0,98,0.00,,,0.13,WUHU216DAVISVP2,2013-09-24 05:54:00,
2013-09-23 22:55:00,55.4,54.8,30.01,ESE,122,0.0,0.0,98,0.00,,,0.13,WUHU216DAVISVP2,2013-09-24 05:55:00,
2013-09-23 22:57:00,55.4,54.8,30.01,ESE,122,0.0,0.0,98,0.00,,,0.13,WUHU216DAVISVP2,2013-09-24 05:57:00,
2013-09-23 22:58:00,55.4,54.8,30.01,ESE,122,0.0,0.0,98,0.00,,,0.13,WUHU216DAVISVP2,2013-09-24 05:58:00,
2013-09-23 22:59:00,55.4,54.8,30.01,ESE,122,0.0,0.0,98,0.00,,,0.13,WUHU216DAVISVP2,2013-09-24 05:59:00,
2013-09-23 23:00:00,55.4,54.8,30.01,ESE,122,0.0,0.0,98,0.00,,,0.13,WUHU216DAVISVP2,2013-09-24 06:00:00,
2013-09-23 23:02:00,55.4,54.8,30.01,ESE,122,0.0,0.0,98,0.00,,,0.13,WUHU216DAVISVP2,2013-09-24 06:02:00,
2013-09-23 23:03:00,55.4,54.8,30.01,ESE,122,0.0,0.0,98,0.00,,,0.13,WUHU216DAVISVP2,2013-09-24 06:03:00,
2013-09-23 23:04:00,55.4,54.8,30.01,ESE,122,0.0,0.0,98,0.00,,,0.13,WUHU216DAVISVP2,2013-09-24 06:04:00,
2013-09-23 23:05:00,55.4,54.8,30.01,ESE,122,0.0,0.0,98,0.00,,,0.13,WUHU216DAVISVP2,2013-09-24 06:05:00,
2013-09-23 23:08:00,55.4,54.8,30.01,ESE,122,0.0,0.0,98,0.00,,,0.13,WUHU216DAVISVP2,2013-09-24 06:08:00,
2013-09-23 23:09:00,55.4,54.8,30.01,ESE,122,0.0,0.0,98,0.00,,,0.13,WUHU216DAVISVP2,2013-09-24 06:09:00,
2013-09-23 23:10:00,55.4,54.8,30.01,ESE,122,0.0,0.0,98,0.00,,,0.13,WUHU216DAVISVP2,2013-09-24 06:10:00,
2013-09-23 23:11:00,55.4,54.8,30.01,ESE,122,0.0,0.0,98,0.00,,,0.13,WUHU216DAVISVP2,2013-09-24 06:11:00,
2013-09-23 23:13:00,55.4,54.8,30.01,ESE,122,0.0,0.0,98,0.00,,,0.13,WUHU216DAVISVP2,2013-09-24 06:13:00,
2013-09-23 23:14:00,55.3,54.7,30.01,ESE,122,0.0,0.0,98,0.00,,,0.13,WUHU216DAVISVP2,2013-09-24 06:14:00,
2013-09-23 23:15:00,55.3,54.7,30.01,ESE,122,0.0,0.0,98,0.00,,,0.13,WUHU216DAVISVP2,2013-09-24 06:15:00,
2013-09-23 23:16:00,55.3,54.7,30.01,ESE,122,0.0,0.0,98,0.00,,,0.13,WUHU216DAVISVP2,2013-09-24 06:16:00,
2013-09-23 23:19:00,55.3,54.7,30.01,ESE,122,0.0,0.0,98,0.00,,,0.13,WUHU216DAVISVP2,2013-09-24 06:19:00,
2013-09-23 23:20:00,55.3,54.7,30.01,ESE,122,0.0,0.0,98,0.00,,,0.13,WUHU216DAVISVP2,2013-09-24 06:20:00,
2013-09-23 23:21:00,55.3,54.7,30.01,ESE,122,0.0,0.0,98,0.00,,,0.13,WUHU216DAVISVP2,2013-09-24 06:21:00,
2013-09-23 23:22:00,55.3,54.7,30.01,ESE,122,0.0,0.0,98,0.00,,,0.13,WUHU216DAVISVP2,2013-09-24 06:22:00,
2013-09-23 23:24:00,55.2,54.6,30.01,ESE,122,0.0,0.0,98,0.00,,,0.13,WUHU216DAVISVP2,2013-09-24 06:24:00,
2013-09-23 23:25:00,55.2,54.6,30.01,ESE,122,0.0,0.0,98,0.00,,,0.13,WUHU216DAVISVP2,2013-09-24 06:25:00,
2013-09-23 23:26:00,55.2,54.6,30.01,ESE,122,0.0,0.0,98,0.00,,,0.13,WUHU216DAVISVP2,2013-09-24 06:26:00,
2013-09-23 23:27:00,55.2,54.6,30.01,ESE,122,0.0,0.0,98,0.00,,,0.13,WUHU216DAVISVP2,2013-09-24 06:27:00,
2013-09-23 23:29:00,55.2,54.6,30.01,ESE,122,0.0,0.0,98,0.00,,,0.13,WUHU216DAVISVP2,2013-09-24 06:29:00,
2013-09-23 23:30:00,55.2,54.6,30.01,ESE,122,0.0,0.0,98,0.00,,,0.13,WUHU216DAVISVP2,2013-09-24 06:30:00,
2013-09-23 23:31:00,55.1,54.5,30.01,ESE,122,0.0,0.0,98,0.00,,,0.13,WUHU216DAVISVP2,2013-09-24 06:31:00,
2013-09-23 23:32:00,55.1,54.5,30.01,ESE,122,0.0,0.0,98,0.00,,,0.13,WUHU216DAVISVP2,2013-09-24 06:32:00,
2013-09-23 23:34:00,55.1,54.5,30.01,ESE,122,0.0,0.0,98,0.00,,,0.13,WUHU216DAVISVP2,2013-09-24 06:34:00,
2013-09-23 23:35:00,55.1,54.5,30.01,ESE,122,0.0,0.0,98,0.00,,,0.13,WUHU216DAVISVP2,2013-09-24 06:35:00,
2013-09-23 23:37:00,55.1,54.5,30.01,ESE,122,0.0,0.0,98,0.00,,,0.13,WUHU216DAVISVP2,2013-09-24 06:37:00,
2013-09-23 23:38:00,55.0,54.4,30.01,ESE,122,0.0,0.0,98,0.00,,,0.13,WUHU216DAVISVP2,2013-09-24 06:38:00,
2013-09-23 23:40:00,55.0,54.4,30.01,ESE,122,0.0,0.0,98,0.00,,,0.13,WUHU216DAVISVP2,2013-09-24 06:40:00,
2013-09-23 23:42:00,55.0,54.4,30.01,ESE,122,0.0,0.0,98,0.00,,,0.13,WUHU216DAVISVP2,2013-09-24 06:42:00,
2013-09-23 23:43:00,55.0,54.4,30.01,ESE,122,0.0,0.0,98,0.00,,,0.13,WUHU216DAVISVP2,2013-09-24 06:43:00,
2013-09-23 23:44:00,55.0,54.4,30.01,ESE,122,0.0,0.0,98,0.00,,,0.13,WUHU216DAVISVP2,2013-09-24 06:44:00,
2013-09-23 23:45:00,55.0,54.4,30.01,ESE,122,0.0,0.0,98,0.00,,,0.13,WUHU216DAVISVP2,2013-09-24 06:45:00,
2013-09-23 23:48:00,55.0,54.4,30.01,ESE,122,0.0,0.0,98,0.00,,,0.13,WUHU216DAVISVP2,2013-09-24 06:48:00,
2013-09-23 23:50:00,55.0,54.4,30.01,ESE,122,0.0,0.0,98,0.00,,,0.13,WUHU216DAVISVP2,2013-09-24 06:50:00,
2013-09-23 23:51:00,55.0,54.4,30.00,ESE,122,0.0,0.0,98,0.00,,,0.13,WUHU216DAVISVP2,2013-09-24 06:51:00,
2013-09-23 23:53:00,55.0,54.4,30.00,ESE,122,0.0,0.0,98,0.00,,,0.13,WUHU216DAVISVP2,2013-09-24 06:53:00,
2013-09-23 23:55:00,55.0,54.4,30.00,SE,127,0.0,0.0,98,0.00,,,0.13,WUHU216DAVISVP2,2013-09-24 06:55:00,
2013-09-23 23:56:00,55.0,54.4,30.01,SE,127,0.0,0.0,98,0.00,,,0.13,WUHU216DAVISVP2,2013-09-24 06:56:00,
2013-09-23 23:58:00,55.0,54.4,30.01,SE,127,0.0,0.0,98,0.00,,,0.13,WUHU216DAVISVP2,2013-09-24 06:58:00,